Wetterdaten: Mittwoch, 11.12.2013
Datum Zeit Temp. Aussen +5cm Feuchte Auss Luftdruck Regen Sonnenschein Regendauer UV Solar Windben
11.12.2013 00:00 3,2 C 2,2 C 98 % 1034,1 hPa 0,0 l/m 0 min 0 min 0,0 UV-I 0 W/m 23,2 km/h (4 Bft)
11.12.2013 00:02 3,2 C 2,2 C 98 % 1034,2 hPa 0,0 l/m 0 min 0 min 0,0 UV-I 0 W/m 25,7 km/h (4 Bft)
11.12.2013 00:06 3,2 C 2,2 C 98 % 1034,2 hPa 0,0 l/m 0 min 0 min 0,0 UV-I 0 W/m 10,3 km/h (2 Bft)
11.12.2013 00:08 3,2 C 2,2 C 98 % 1034,2 hPa 0,0 l/m 0 min 0 min 0,0 UV-I 0 W/m 7,7 km/h (2 Bft)
11.12.2013 00:10 3,2 C 2,2 C 98 % 1034,1 hPa 0,0 l/m 0 min 0 min 0,0 UV-I 0 W/m 10,3 km/h (2 Bft)
11.12.2013 00:12 3,2 C 2,2 C 98 % 1034,1 hPa 0,0 l/m 0 min 0 min 0,0 UV-I 0 W/m 7,7 km/h (2 Bft)
11.12.2013 00:14 3,2 C 2,2 C 98 % 1034,1 hPa 0,0 l/m 0 min 0 min 0,0 UV-I 0 W/m 5,1 km/h (1 Bft)
11.12.2013 00:16 3,2 C 2,2 C 98 % 1034,1 hPa 0,0 l/m 0 min 0 min 0,0 UV-I 0 W/m 10,3 km/h (2 Bft)
11.12.2013 00:18 3,2 C 2,2 C 98 % 1034,2 hPa 0,0 l/m 0 min 0 min 0,0 UV-I 0 W/m 15,4 km/h (3 Bft)
11.12.2013 00:20 3,2 C 2,2 C 98 % 1034,2 hPa 0,0 l/m 0 min 0 min 0,0 UV-I 0 W/m 15,4 km/h (3 Bft)
11.12.2013 00:22 3,2 C 2,2 C 98 % 1034,2 hPa 0,0 l/m 0 min 0 min 0,0 UV-I 0 W/m 10,3 km/h (2 Bft)
11.12.2013 00:24 3,2 C 2,2 C 98 % 1034,2 hPa 0,0 l/m 0 min 0 min 0,0 UV-I 0 W/m 7,7 km/h (2 Bft)
11.12.2013 00:26 3,2 C 2,2 C 98 % 1034,1 hPa 0,0 l/m 0 min 0 min 0,0 UV-I 0 W/m 0,0 km/h (0 Bft)
11.12.2013 00:28 3,3 C 2,2 C 98 % 1034,1 hPa 0,0 l/m 0 min 0 min 0,0 UV-I 0 W/m 7,7 km/h (2 Bft)
11.12.2013 00:30 3,3 C 2,2 C 98 % 1034,1 hPa 0,0 l/m 0 min 0 min 0,0 UV-I 0 W/m 0,0 km/h (0 Bft)
11.12.2013 00:32 3,3 C 2,2 C 98 % 1034,0 hPa 0,0 l/m 0 min 0 min 0,0 UV-I 0 W/m 15,4 km/h (3 Bft)
11.12.2013 00:34 3,3 C 2,2 C 98 % 1034,1 hPa 0,0 l/m 0 min 0 min 0,0 UV-I 0 W/m 15,4 km/h (3 Bft)
11.12.2013 00:36 3,3 C 2,2 C 98 % 1034,1 hPa 0,0 l/m 0 min 0 min 0,0 UV-I 0 W/m 12,9 km/h (3 Bft)
11.12.2013 00:38 3,3 C 2,2 C 98 % 1034,1 hPa 0,0 l/m 0 min 0 min 0,0 UV-I 0 W/m 12,9 km/h (3 Bft)
11.12.2013 00:40 3,3 C 2,2 C 98 % 1034,0 hPa 0,0 l/m 0 min 0 min 0,0 UV-I 0 W/m 12,9 km/h (3 Bft)
11.12.2013 00:42 3,3 C 2,2 C 98 % 1034,0 hPa 0,0 l/m 0 min 0 min 0,0 UV-I 0 W/m 10,3 km/h (2 Bft)
11.12.2013 00:44 3,3 C 2,2 C 98 % 1034,0 hPa 0,0 l/m 0 min 0 min 0,0 UV-I 0 W/m 18,0 km/h (3 Bft)
11.12.2013 00:46 3,3 C 2,2 C 98 % 1033,9 hPa 0,0 l/m 0 min 0 min 0,0 UV-I 0 W/m 15,4 km/h (3 Bft)
11.12.2013 00:48 3,3 C 2,2 C 98 % 1034,0 hPa 0,0 l/m 0 min 0 min 0,0 UV-I 0 W/m 10,3 km/h (2 Bft)
11.12.2013 00:50 3,3 C 2,2 C 98 % 1033,9 hPa 0,0 l/m 0 min 0 min 0,0 UV-I 0 W/m 15,4 km/h (3 Bft)
11.12.2013 00:52 3,3 C 2,2 C 99 % 1033,9 hPa 0,0 l/m 0 min 0 min 0,0 UV-I 0 W/m 18,0 km/h (3 Bft)
11.12.2013 00:54 3,3 C 2,2 C 99 % 1033,9 hPa 0,0 l/m 0 min 0 min 0,0 UV-I 0 W/m 12,9 km/h (3 Bft)
11.12.2013 00:56 3,3 C 2,2 C 99 % 1034,0 hPa 0,0 l/m 0 min 0 min 0,0 UV-I 0 W/m 7,7 km/h (2 Bft)
11.12.2013 00:58 3,3 C 2,2 C 99 % 1033,9 hPa 0,0 l/m 0 min 0 min 0,0 UV-I 0 W/m 10,3 km/h (2 Bft)
11.12.2013 01:00 3,3 C 2,2 C 99 % 1033,9 hPa 0,0 l/m 0 min 0 min 0,0 UV-I 0 W/m 12,9 km/h (3 Bft)
11.12.2013 01:02 3,3 C 2,2 C 99 % 1033,9 hPa 0,0 l/m 0 min 0 min 0,0 UV-I 0 W/m 7,7 km/h (2 Bft)
11.12.2013 01:04 3,3 C 2,2 C 99 % 1033,9 hPa 0,0 l/m 0 min 0 min 0,0 UV-I 0 W/m 12,9 km/h (3 Bft)
11.12.2013 01:06 3,3 C 2,2 C 99 % 1033,9 hPa 0,0 l/m 0 min 0 min 0,0 UV-I 0 W/m 10,3 km/h (2 Bft)
11.12.2013 01:08 3,4 C 2,8 C 99 % 1033,8 hPa 0,0 l/m 0 min 0 min 0,0 UV-I 0 W/m 15,4 km/h (3 Bft)
11.12.2013 01:10 3,4 C 2,8 C 99 % 1033,8 hPa 0,0 l/m 0 min 0 min 0,0 UV-I 0 W/m 10,3 km/h (2 Bft)
11.12.2013 01:12 3,4 C 2,8 C 99 % 1033,7 hPa 0,0 l/m 0 min 0 min 0,0 UV-I 0 W/m 7,7 km/h (2 Bft)
11.12.2013 01:14 3,4 C 2,8 C 99 % 1033,8 hPa 0,0 l/m 0 min 0 min 0,0 UV-I 0 W/m 10,3 km/h (2 Bft)
11.12.2013 01:16 3,4 C 2,8 C 99 % 1033,7 hPa 0,0 l/m 0 min 0 min 0,0 UV-I 0 W/m 12,9 km/h (3 Bft)
11.12.2013 01:18 3,4 C 2,8 C 99 % 1033,8 hPa 0,0 l/m 0 min 0 min 0,0 UV-I 0 W/m 7,7 km/h (2 Bft)
11.12.2013 01:20 3,4 C 2,8 C 99 % 1033,7 hPa 0,0 l/m 0 min 0 min 0,0 UV-I 0 W/m 0,0 km/h (0 Bft)
11.12.2013 01:22 3,4 C 2,8 C 99 % 1033,7 hPa 0,0 l/m 0 min 0 min 0,0 UV-I 0 W/m 5,1 km/h (1 Bft)
11.12.2013 01:24 3,4 C 2,8 C 99 % 1033,7 hPa 0,0 l/m 0 min 0 min 0,0 UV-I 0 W/m 7,7 km/h (2 Bft)
11.12.2013 01:26 3,5 C 2,8 C 98 % 1033,7 hPa 0,0 l/m 0 min 0 min 0,0 UV-I 0 W/m 0,0 km/h (0 Bft)
11.12.2013 01:28 3,5 C 2,8 C 98 % 1033,8 hPa 0,0 l/m 0 min 0 min 0,0 UV-I 0 W/m 5,1 km/h (1 Bft)
11.12.2013 01:30 3,5 C 2,8 C 98 % 1033,8 hPa 0,0 l/m 0 min 0 min 0,0 UV-I 0 W/m 10,3 km/h (2 Bft)
11.12.2013 01:32 3,5 C 2,8 C 98 % 1033,8 hPa 0,0 l/m 0 min 0 min 0,0 UV-I 0 W/m 12,9 km/h (3 Bft)
11.12.2013 01:34 3,5 C 2,8 C 98 % 1033,8 hPa 0,0 l/m 0 min 0 min 0,0 UV-I 0 W/m 7,7 km/h (2 Bft)
11.12.2013 01:36 3,6 C 2,8 C 99 % 1033,9 hPa 0,0 l/m 0 min 0 min 0,0 UV-I 0 W/m 10,3 km/h (2 Bft)
11.12.2013 01:38 3,6 C 2,8 C 99 % 1033,9 hPa 0,0 l/m 0 min 0 min 0,0 UV-I 0 W/m 2,6 km/h (1 Bft)
11.12.2013 01:40 3,6 C 2,8 C 99 % 1033,8 hPa 0,0 l/m 0 min 0 min 0,0 UV-I 0 W/m 10,3 km/h (2 Bft)
11.12.2013 01:42 3,6 C 2,8 C 99 % 1033,8 hPa 0,0 l/m 0 min 0 min 0,0 UV-I 0 W/m 10,3 km/h (2 Bft)
11.12.2013 01:44 3,6 C 2,8 C 99 % 1033,7 hPa 0,0 l/m 0 min 0 min 0,0 UV-I 0 W/m 18,0 km/h (3 Bft)
11.12.2013 01:46 3,5 C 2,8 C 99 % 1033,6 hPa 0,0 l/m 0 min 0 min 0,0 UV-I 0 W/m 10,3 km/h (2 Bft)
11.12.2013 01:48 3,5 C 2,8 C 99 % 1033,7 hPa 0,0 l/m 0 min 0 min 0,0 UV-I 0 W/m 12,9 km/h (3 Bft)
11.12.2013 01:50 3,5 C 2,8 C 99 % 1033,7 hPa 0,0 l/m 0 min 0 min 0,0 UV-I 0 W/m 10,3 km/h (2 Bft)
11.12.2013 01:52 3,5 C 2,8 C 99 % 1033,7 hPa 0,0 l/m 0 min 0 min 0,0 UV-I 0 W/m 20,6 km/h (4 Bft)
11.12.2013 01:54 3,5 C 2,8 C 99 % 1033,8 hPa 0,0 l/m 0 min 0 min 0,0 UV-I 0 W/m 7,7 km/h (2 Bft)
11.12.2013 01:56 3,5 C 2,8 C 99 % 1033,9 hPa 0,0 l/m 0 min 0 min 0,0 UV-I 0 W/m 15,4 km/h (3 Bft)
11.12.2013 01:58 3,4 C 2,8 C 99 % 1033,9 hPa 0,0 l/m 0 min 0 min 0,0 UV-I 0 W/m 10,3 km/h (2 Bft)
11.12.2013 02:00 3,4 C 2,2 C 99 % 1033,9 hPa 0,0 l/m 0 min 0 min 0,0 UV-I 0 W/m 0,0 km/h (0 Bft)
11.12.2013 02:02 3,4 C 2,2 C 99 % 1033,9 hPa 0,0 l/m 0 min 0 min 0,0 UV-I 0 W/m 10,3 km/h (2 Bft)
11.12.2013 02:04 3,4 C 2,2 C 99 % 1033,9 hPa 0,0 l/m 0 min 0 min 0,0 UV-I 0 W/m 15,4 km/h (3 Bft)
11.12.2013 02:06 3,4 C 2,2 C 99 % 1034,0 hPa 0,0 l/m 0 min 0 min 0,0 UV-I 0 W/m 20,6 km/h (4 Bft)
11.12.2013 02:08 3,4 C 2,2 C 99 % 1033,9 hPa 0,0 l/m 0 min 0 min 0,0 UV-I 0 W/m 18,0 km/h (3 Bft)
11.12.2013 02:10 3,4 C 2,2 C 99 % 1033,9 hPa 0,0 l/m 0 min 0 min 0,0 UV-I 0 W/m 12,9 km/h (3 Bft)
11.12.2013 02:12 3,4 C 2,2 C 99 % 1033,9 hPa 0,0 l/m 0 min 0 min 0,0 UV-I 0 W/m 10,3 km/h (2 Bft)
11.12.2013 02:14 3,3 C 2,2 C 99 % 1033,9 hPa 0,0 l/m 0 min 0 min 0,0 UV-I 0 W/m 18,0 km/h (3 Bft)
11.12.2013 02:16 3,4 C 2,2 C 99 % 1033,9 hPa 0,0 l/m 0 min 0 min 0,0 UV-I 0 W/m 15,4 km/h (3 Bft)
11.12.2013 02:18 3,3 C 2,2 C 99 % 1033,9 hPa 0,0 l/m 0 min 0 min 0,0 UV-I 0 W/m 5,1 km/h (1 Bft)
11.12.2013 02:20 3,4 C 2,2 C 99 % 1033,9 hPa 0,0 l/m 0 min 0 min 0,0 UV-I 0 W/m 10,3 km/h (2 Bft)
11.12.2013 02:22 3,4 C 2,2 C 99 % 1033,9 hPa 0,0 l/m 0 min 0 min 0,0 UV-I 0 W/m 12,9 km/h (3 Bft)
11.12.2013 02:24 3,4 C 2,2 C 99 % 1033,9 hPa 0,0 l/m 0 min 0 min 0,0 UV-I 0 W/m 15,4 km/h (3 Bft)
11.12.2013 02:26 3,4 C 2,2 C 99 % 1033,9 hPa 0,0 l/m 0 min 0 min 0,0 UV-I 0 W/m 10,3 km/h (2 Bft)
11.12.2013 02:28 3,4 C 2,2 C 99 % 1033,9 hPa 0,0 l/m 0 min 0 min 0,0 UV-I 0 W/m 12,9 km/h (3 Bft)
11.12.2013 02:30 3,4 C 2,2 C 99 % 1033,9 hPa 0,0 l/m 0 min 0 min 0,0 UV-I 0 W/m 7,7 km/h (2 Bft)
11.12.2013 02:32 3,4 C 2,2 C 99 % 1034,0 hPa 0,0 l/m 0 min 0 min 0,0 UV-I 0 W/m 12,9 km/h (3 Bft)
11.12.2013 02:34 3,4 C 2,8 C 99 % 1033,9 hPa 0,0 l/m 0 min 0 min 0,0 UV-I 0 W/m 12,9 km/h (3 Bft)
11.12.2013 02:36 3,4 C 2,8 C 99 % 1033,9 hPa 0,0 l/m 0 min 0 min 0,0 UV-I 0 W/m 18,0 km/h (3 Bft)
11.12.2013 02:38 3,4 C 2,8 C 99 % 1033,9 hPa 0,0 l/m 0 min 0 min 0,0 UV-I 0 W/m 12,9 km/h (3 Bft)
11.12.2013 02:40 3,4 C 2,8 C 99 % 1033,9 hPa 0,0 l/m 0 min 0 min 0,0 UV-I 0 W/m 12,9 km/h (3 Bft)
11.12.2013 02:42 3,4 C 2,8 C 99 % 1034,0 hPa 0,0 l/m 0 min 0 min 0,0 UV-I 0 W/m 15,4 km/h (3 Bft)
11.12.2013 02:44 3,4 C 2,8 C 99 % 1034,0 hPa 0,0 l/m 0 min 0 min 0,0 UV-I 0 W/m 20,6 km/h (4 Bft)
11.12.2013 02:46 3,4 C 2,8 C 99 % 1034,0 hPa 0,0 l/m 0 min 0 min 0,0 UV-I 0 W/m 15,4 km/h (3 Bft)
11.12.2013 02:48 3,4 C 2,8 C 99 % 1034,0 hPa 0,0 l/m 0 min 0 min 0,0 UV-I 0 W/m 5,1 km/h (1 Bft)
11.12.2013 02:50 3,4 C 2,2 C 99 % 1034,0 hPa 0,0 l/m 0 min 0 min 0,0 UV-I 0 W/m 12,9 km/h (3 Bft)
11.12.2013 02:52 3,4 C 2,2 C 99 % 1034,0 hPa 0,0 l/m 0 min 0 min 0,0 UV-I 0 W/m 18,0 km/h (3 Bft)
11.12.2013 02:54 3,3 C 2,2 C 99 % 1033,9 hPa 0,0 l/m 0 min 0 min 0,0 UV-I 0 W/m 18,0 km/h (3 Bft)
11.12.2013 02:56 3,3 C 2,2 C 99 % 1033,9 hPa 0,0 l/m 0 min 0 min 0,0 UV-I 0 W/m 12,9 km/h (3 Bft)
11.12.2013 02:58 3,3 C 2,2 C 99 % 1033,9 hPa 0,0 l/m 0 min 0 min 0,0 UV-I 0 W/m 10,3 km/h (2 Bft)
11.12.2013 03:00 3,2 C 2,2 C 99 % 1033,9 hPa 0,0 l/m 0 min 0 min 0,0 UV-I 0 W/m 15,4 km/h (3 Bft)
11.12.2013 03:02 3,2 C 2,2 C 99 % 1033,9 hPa 0,0 l/m 0 min 0 min 0,0 UV-I 0 W/m 12,9 km/h (3 Bft)
11.12.2013 03:04 3,2 C 2,2 C 99 % 1033,9 hPa 0,0 l/m 0 min 0 min 0,0 UV-I 0 W/m 12,9 km/h (3 Bft)
11.12.2013 03:06 3,2 C 2,2 C 99 % 1033,9 hPa 0,0 l/m 0 min 0 min 0,0 UV-I 0 W/m 12,9 km/h (3 Bft)
11.12.2013 03:08 3,2 C 2,2 C 99 % 1033,9 hPa 0,0 l/m 0 min 0 min 0,0 UV-I 0 W/m 15,4 km/h (3 Bft)
11.12.2013 03:10 3,2 C 2,2 C 99 % 1033,9 hPa 0,0 l/m 0 min 0 min 0,0 UV-I 0 W/m 12,9 km/h (3 Bft)
11.12.2013 03:12 3,2 C 2,2 C 99 % 1034,0 hPa 0,0 l/m 0 min 0 min 0,0 UV-I 0 W/m 15,4 km/h (3 Bft)
11.12.2013 03:14 3,2 C 2,2 C 99 % 1034,0 hPa 0,0 l/m 0 min 0 min 0,0 UV-I 0 W/m 12,9 km/h (3 Bft)
11.12.2013 03:16 3,2 C 2,2 C 99 % 1034,0 hPa 0,0 l/m 0 min 0 min 0,0 UV-I 0 W/m 15,4 km/h (3 Bft)
11.12.2013 03:18 3,2 C 2,2 C 99 % 1034,0 hPa 0,0 l/m 0 min 0 min 0,0 UV-I 0 W/m 15,4 km/h (3 Bft)
11.12.2013 03:20 3,2 C 2,2 C 99 % 1034,0 hPa 0,0 l/m 0 min 0 min 0,0 UV-I 0 W/m 10,3 km/h (2 Bft)
11.12.2013 03:22 3,2 C 2,2 C 99 % 1034,0 hPa 0,0 l/m 0 min 0 min 0,0 UV-I 0 W/m 12,9 km/h (3 Bft)
11.12.2013 03:24 3,2 C 2,2 C 99 % 1034,0 hPa 0,0 l/m 0 min 0 min 0,0 UV-I 0 W/m 15,4 km/h (3 Bft)
11.12.2013 03:26 3,2 C 2,2 C 99 % 1034,1 hPa 0,0 l/m 0 min 0 min 0,0 UV-I 0 W/m 12,9 km/h (3 Bft)
11.12.2013 03:28 3,2 C 2,2 C 99 % 1034,1 hPa 0,0 l/m 0 min 0 min 0,0 UV-I 0 W/m 2,6 km/h (1 Bft)
11.12.2013 03:30 3,2 C 2,2 C 99 % 1034,1 hPa 0,0 l/m 0 min 0 min 0,0 UV-I 0 W/m 18,0 km/h (3 Bft)
11.12.2013 03:32 3,2 C 2,2 C 99 % 1034,2 hPa 0,0 l/m 0 min 0 min 0,0 UV-I 0 W/m 15,4 km/h (3 Bft)
11.12.2013 03:34 3,2 C 2,2 C 99 % 1034,1 hPa 0,0 l/m 0 min 0 min 0,0 UV-I 0 W/m 18,0 km/h (3 Bft)
11.12.2013 03:36 3,2 C 2,2 C 99 % 1034,2 hPa 0,0 l/m 0 min 0 min 0,0 UV-I 0 W/m 10,3 km/h (2 Bft)
11.12.2013 03:38 3,2 C 2,2 C 99 % 1034,2 hPa 0,0 l/m 0 min 0 min 0,0 UV-I 0 W/m 12,9 km/h (3 Bft)
11.12.2013 03:40 3,2 C 2,2 C 99 % 1034,2 hPa 0,0 l/m 0 min 0 min 0,0 UV-I 0 W/m 10,3 km/h (2 Bft)
11.12.2013 03:42 3,2 C 2,2 C 99 % 1034,2 hPa 0,0 l/m 0 min 0 min 0,0 UV-I 0 W/m 0,0 km/h (0 Bft)
11.12.2013 03:44 3,2 C 2,2 C 99 % 1034,2 hPa 0,0 l/m 0 min 0 min 0,0 UV-I 0 W/m 0,0 km/h (0 Bft)
11.12.2013 03:46 3,2 C 2,2 C 99 % 1034,2 hPa 0,0 l/m 0 min 0 min 0,0 UV-I 0 W/m 5,1 km/h (1 Bft)
11.12.2013 03:48 3,2 C 2,2 C 99 % 1034,1 hPa 0,0 l/m 0 min 0 min 0,0 UV-I 0 W/m 2,6 km/h (1 Bft)
11.12.2013 03:50 3,2 C 2,2 C 99 % 1034,1 hPa 0,0 l/m 0 min 0 min 0,0 UV-I 0 W/m 2,6 km/h (1 Bft)
11.12.2013 03:52 3,2 C 2,2 C 99 % 1034,1 hPa 0,0 l/m 0 min 0 min 0,0 UV-I 0 W/m 12,9 km/h (3 Bft)
11.12.2013 03:54 3,2 C 2,2 C 99 % 1034,1 hPa 0,0 l/m 0 min 0 min 0,0 UV-I 0 W/m 15,4 km/h (3 Bft)
11.12.2013 03:56 3,2 C 2,2 C 99 % 1034,1 hPa 0,0 l/m 0 min 0 min 0,0 UV-I 0 W/m 12,9 km/h (3 Bft)
11.12.2013 03:58 3,2 C 2,2 C 99 % 1034,1 hPa 0,0 l/m 0 min 0 min 0,0 UV-I 0 W/m 10,3 km/h (2 Bft)
11.12.2013 04:00 3,2 C 2,2 C 99 % 1034,0 hPa 0,0 l/m 0 min 0 min 0,0 UV-I 0 W/m 7,7 km/h (2 Bft)
11.12.2013 04:05 3,2 C 2,2 C 99 % 1033,9 hPa 0,0 l/m 0 min 0 min 0,0 UV-I 0 W/m 12,9 km/h (3 Bft)
11.12.2013 04:06 3,2 C 2,2 C 99 % 1034,0 hPa 0,0 l/m 0 min 0 min 0,0 UV-I 0 W/m 10,3 km/h (2 Bft)
11.12.2013 04:08 3,2 C 2,2 C 99 % 1034,0 hPa 0,0 l/m 0 min 0 min 0,0 UV-I 0 W/m 12,9 km/h (3 Bft)
11.12.2013 04:10 3,2 C 2,2 C 99 % 1034,0 hPa 0,0 l/m 0 min 0 min 0,0 UV-I 0 W/m 25,7 km/h (4 Bft)
11.12.2013 04:12 3,2 C 2,2 C 99 % 1033,9 hPa 0,0 l/m 0 min 0 min 0,0 UV-I 0 W/m 12,9 km/h (3 Bft)
11.12.2013 04:14 3,2 C 2,2 C 99 % 1034,0 hPa 0,0 l/m 0 min 0 min 0,0 UV-I 0 W/m 7,7 km/h (2 Bft)
11.12.2013 04:16 3,3 C 2,2 C 99 % 1033,9 hPa 0,0 l/m 0 min 0 min 0,0 UV-I 0 W/m 15,4 km/h (3 Bft)
11.12.2013 04:18 3,3 C 2,2 C 99 % 1033,9 hPa 0,0 l/m 0 min 0 min 0,0 UV-I 0 W/m 18,0 km/h (3 Bft)
11.12.2013 04:20 3,3 C 2,8 C 99 % 1033,9 hPa 0,0 l/m 0 min 2 min 0,0 UV-I 0 W/m 20,6 km/h (4 Bft)
11.12.2013 04:22 3,3 C 2,8 C 99 % 1034,0 hPa 0,0 l/m 0 min 0 min 0,0 UV-I 0 W/m 23,2 km/h (4 Bft)
11.12.2013 04:24 3,3 C 2,8 C 99 % 1033,9 hPa 0,0 l/m 0 min 0 min 0,0 UV-I 0 W/m 7,7 km/h (2 Bft)
11.12.2013 04:26 3,3 C 2,8 C 99 % 1033,9 hPa 0,0 l/m 0 min 0 min 0,0 UV-I 0 W/m 10,3 km/h (2 Bft)
11.12.2013 04:28 3,3 C 2,8 C 99 % 1033,9 hPa 0,0 l/m 0 min 0 min 0,0 UV-I 0 W/m 12,9 km/h (3 Bft)
11.12.2013 04:30 3,3 C 2,8 C 99 % 1033,9 hPa 0,0 l/m 0 min 0 min 0,0 UV-I 0 W/m 15,4 km/h (3 Bft)
11.12.2013 04:32 3,4 C 2,8 C 99 % 1033,8 hPa 0,0 l/m 0 min 0 min 0,0 UV-I 0 W/m 12,9 km/h (3 Bft)
11.12.2013 04:34 3,4 C 2,8 C 99 % 1033,8 hPa 0,0 l/m 0 min 0 min 0,0 UV-I 0 W/m 12,9 km/h (3 Bft)
11.12.2013 04:36 3,4 C 2,8 C 99 % 1033,9 hPa 0,0 l/m 0 min 0 min 0,0 UV-I 0 W/m 12,9 km/h (3 Bft)
11.12.2013 04:38 3,4 C 2,8 C 99 % 1033,8 hPa 0,0 l/m 0 min 0 min 0,0 UV-I 0 W/m 15,4 km/h (3 Bft)
11.12.2013 04:40 3,4 C 2,8 C 99 % 1033,9 hPa 0,0 l/m 0 min 0 min 0,0 UV-I 0 W/m 18,0 km/h (3 Bft)
11.12.2013 04:42 3,4 C 2,8 C 99 % 1033,9 hPa 0,0 l/m 0 min 0 min 0,0 UV-I 0 W/m 10,3 km/h (2 Bft)
11.12.2013 04:44 3,4 C 2,8 C 99 % 1033,9 hPa 0,0 l/m 0 min 0 min 0,0 UV-I 0 W/m 10,3 km/h (2 Bft)
11.12.2013 04:46 3,4 C 2,8 C 99 % 1033,9 hPa 0,0 l/m 0 min 0 min 0,0 UV-I 0 W/m 15,4 km/h (3 Bft)
11.12.2013 04:48 3,4 C 2,8 C 99 % 1033,9 hPa 0,0 l/m 0 min 0 min 0,0 UV-I 0 W/m 12,9 km/h (3 Bft)
11.12.2013 04:50 3,4 C 2,8 C 99 % 1034,0 hPa 0,0 l/m 0 min 0 min 0,0 UV-I 0 W/m 12,9 km/h (3 Bft)
11.12.2013 04:52 3,4 C 2,8 C 99 % 1033,9 hPa 0,0 l/m 0 min 0 min 0,0 UV-I 0 W/m 5,1 km/h (1 Bft)
11.12.2013 04:54 3,4 C 2,8 C 99 % 1033,9 hPa 0,0 l/m 0 min 0 min 0,0 UV-I 0 W/m 5,1 km/h (1 Bft)
11.12.2013 04:56 3,5 C 2,8 C 99 % 1033,9 hPa 0,0 l/m 0 min 0 min 0,0 UV-I 0 W/m 0,0 km/h (0 Bft)
11.12.2013 04:58 3,5 C 2,8 C 99 % 1033,9 hPa 0,0 l/m 0 min 0 min 0,0 UV-I 0 W/m 0,0 km/h (0 Bft)
11.12.2013 05:00 3,5 C 2,8 C 99 % 1033,9 hPa 0,0 l/m 0 min 0 min 0,0 UV-I 0 W/m 10,3 km/h (2 Bft)
11.12.2013 05:02 3,5 C 2,8 C 99 % 1033,9 hPa 0,0 l/m 0 min 0 min 0,0 UV-I 0 W/m 12,9 km/h (3 Bft)
11.12.2013 05:04 3,5 C 2,8 C 99 % 1033,9 hPa 0,0 l/m 0 min 0 min 0,0 UV-I 0 W/m 15,4 km/h (3 Bft)
11.12.2013 05:06 3,5 C 2,8 C 99 % 1033,9 hPa 0,0 l/m 0 min 0 min 0,0 UV-I 0 W/m 7,7 km/h (2 Bft)
11.12.2013 05:08 3,5 C 2,8 C 99 % 1033,8 hPa 0,0 l/m 0 min 0 min 0,0 UV-I 0 W/m 12,9 km/h (3 Bft)
11.12.2013 05:10 3,5 C 2,8 C 99 % 1033,8 hPa 0,0 l/m 0 min 0 min 0,0 UV-I 0 W/m 10,3 km/h (2 Bft)
11.12.2013 05:12 3,6 C 2,8 C 99 % 1033,8 hPa 0,0 l/m 0 min 0 min 0,0 UV-I 0 W/m 15,4 km/h (3 Bft)
11.12.2013 05:14 3,6 C 2,8 C 99 % 1033,8 hPa 0,0 l/m 0 min 0 min 0,0 UV-I 0 W/m 12,9 km/h (3 Bft)
11.12.2013 05:16 3,6 C 2,8 C 99 % 1033,9 hPa 0,0 l/m 0 min 0 min 0,0 UV-I 0 W/m 15,4 km/h (3 Bft)
11.12.2013 05:18 3,6 C 2,8 C 99 % 1034,0 hPa 0,0 l/m 0 min 0 min 0,0 UV-I 0 W/m 15,4 km/h (3 Bft)
11.12.2013 05:20 3,6 C 2,8 C 99 % 1033,9 hPa 0,0 l/m 0 min 0 min 0,0 UV-I 0 W/m 12,9 km/h (3 Bft)
11.12.2013 05:22 3,6 C 2,8 C 99 % 1033,9 hPa 0,0 l/m 0 min 0 min 0,0 UV-I 0 W/m 7,7 km/h (2 Bft)
11.12.2013 05:24 3,6 C 2,8 C 99 % 1033,7 hPa 0,0 l/m 0 min 0 min 0,0 UV-I 0 W/m 12,9 km/h (3 Bft)
11.12.2013 05:26 3,6 C 2,8 C 99 % 1033,7 hPa 0,0 l/m 0 min 0 min 0,0 UV-I 0 W/m 12,9 km/h (3 Bft)
11.12.2013 05:28 3,6 C 2,8 C 99 % 1033,7 hPa 0,0 l/m 0 min 0 min 0,0 UV-I 0 W/m 10,3 km/h (2 Bft)
11.12.2013 05:30 3,6 C 2,8 C 99 % 1033,7 hPa 0,0 l/m 0 min 0 min 0,0 UV-I 0 W/m 10,3 km/h (2 Bft)
11.12.2013 05:32 3,6 C 2,8 C 99 % 1033,6 hPa 0,0 l/m 0 min 0 min 0,0 UV-I 0 W/m 15,4 km/h (3 Bft)
11.12.2013 05:34 3,6 C 2,8 C 99 % 1033,5 hPa 0,0 l/m 0 min 0 min 0,0 UV-I 0 W/m 15,4 km/h (3 Bft)
11.12.2013 05:36 3,6 C 2,8 C 99 % 1033,5 hPa 0,0 l/m 0 min 0 min 0,0 UV-I 0 W/m 18,0 km/h (3 Bft)
11.12.2013 05:38 3,6 C 2,8 C 99 % 1033,5 hPa 0,0 l/m 0 min 0 min 0,0 UV-I 0 W/m 7,7 km/h (2 Bft)
11.12.2013 05:40 3,6 C 2,8 C 99 % 1033,6 hPa 0,0 l/m 0 min 0 min 0,0 UV-I 0 W/m 15,4 km/h (3 Bft)
11.12.2013 05:42 3,6 C 2,8 C 99 % 1033,7 hPa 0,0 l/m 0 min 0 min 0,0 UV-I 0 W/m 15,4 km/h (3 Bft)
11.12.2013 05:44 3,6 C 2,8 C 99 % 1033,7 hPa 0,0 l/m 0 min 0 min 0,0 UV-I 0 W/m 10,3 km/h (2 Bft)
11.12.2013 05:46 3,6 C 2,8 C 99 % 1033,6 hPa 0,0 l/m 0 min 0 min 0,0 UV-I 0 W/m 7,7 km/h (2 Bft)
11.12.2013 05:48 3,6 C 2,8 C 99 % 1033,6 hPa 0,0 l/m 0 min 0 min 0,0 UV-I 0 W/m 12,9 km/h (3 Bft)
11.12.2013 05:50 3,6 C 2,8 C 99 % 1033,5 hPa 0,0 l/m 0 min 0 min 0,0 UV-I 0 W/m 18,0 km/h (3 Bft)
11.12.2013 05:52 3,6 C 2,8 C 99 % 1033,7 hPa 0,0 l/m 0 min 0 min 0,0 UV-I 0 W/m 20,6 km/h (4 Bft)
11.12.2013 05:54 3,6 C 2,8 C 99 % 1033,7 hPa 0,0 l/m 0 min 0 min 0,0 UV-I 0 W/m 28,3 km/h (4 Bft)
11.12.2013 05:56 3,6 C 2,8 C 99 % 1033,7 hPa 0,0 l/m 0 min 0 min 0,0 UV-I 0 W/m 20,6 km/h (4 Bft)
11.12.2013 05:58 3,6 C 2,8 C 99 % 1033,7 hPa 0,0 l/m 0 min 0 min 0,0 UV-I 0 W/m 7,7 km/h (2 Bft)
11.12.2013 06:00 3,6 C 2,8 C 99 % 1033,7 hPa 0,0 l/m 0 min 0 min 0,0 UV-I 0 W/m 12,9 km/h (3 Bft)
11.12.2013 06:02 3,6 C 2,8 C 99 % 1033,7 hPa 0,0 l/m 0 min 0 min 0,0 UV-I 0 W/m 10,3 km/h (2 Bft)
11.12.2013 06:04 3,6 C 2,8 C 99 % 1033,7 hPa 0,0 l/m 0 min 0 min 0,0 UV-I 0 W/m 7,7 km/h (2 Bft)
11.12.2013 06:06 3,6 C 2,8 C 99 % 1033,8 hPa 0,0 l/m 0 min 0 min 0,0 UV-I 0 W/m 12,9 km/h (3 Bft)
11.12.2013 06:08 3,7 C 2,8 C 99 % 1033,8 hPa 0,0 l/m 0 min 0 min 0,0 UV-I 0 W/m 12,9 km/h (3 Bft)
11.12.2013 06:10 3,7 C 2,8 C 99 % 1033,8 hPa 0,0 l/m 0 min 0 min 0,0 UV-I 0 W/m 2,6 km/h (1 Bft)
11.12.2013 06:12 3,6 C 2,8 C 99 % 1033,7 hPa 0,0 l/m 0 min 0 min 0,0 UV-I 0 W/m 15,4 km/h (3 Bft)
11.12.2013 06:14 3,7 C 2,8 C 99 % 1033,7 hPa 0,0 l/m 0 min 0 min 0,0 UV-I 0 W/m 12,9 km/h (3 Bft)
11.12.2013 06:16 3,7 C 2,8 C 99 % 1033,7 hPa 0,0 l/m 0 min 0 min 0,0 UV-I 0 W/m 12,9 km/h (3 Bft)
11.12.2013 06:18 3,7 C 2,8 C 99 % 1033,7 hPa 0,0 l/m 0 min 0 min 0,0 UV-I 0 W/m 20,6 km/h (4 Bft)
11.12.2013 06:20 3,7 C 2,8 C 99 % 1033,7 hPa 0,0 l/m 0 min 0 min 0,0 UV-I 0 W/m 10,3 km/h (2 Bft)
11.12.2013 06:22 3,7 C 2,8 C 99 % 1033,7 hPa 0,0 l/m 0 min 0 min 0,0 UV-I 0 W/m 10,3 km/h (2 Bft)
11.12.2013 06:24 3,7 C 2,8 C 99 % 1033,7 hPa 0,0 l/m 0 min 0 min 0,0 UV-I 0 W/m 0,0 km/h (0 Bft)
11.12.2013 06:26 3,7 C 2,8 C 99 % 1033,8 hPa 0,0 l/m 0 min 0 min 0,0 UV-I 0 W/m 0,0 km/h (0 Bft)
11.12.2013 06:28 3,7 C 2,8 C 99 % 1033,8 hPa 0,0 l/m 0 min 0 min 0,0 UV-I 0 W/m 0,0 km/h (0 Bft)
11.12.2013 06:30 3,7 C 2,8 C 99 % 1033,7 hPa 0,0 l/m 0 min 0 min 0,0 UV-I 0 W/m 12,9 km/h (3 Bft)
11.12.2013 06:32 3,7 C 2,8 C 99 % 1033,7 hPa 0,0 l/m 0 min 0 min 0,0 UV-I 0 W/m 10,3 km/h (2 Bft)
11.12.2013 06:34 3,7 C 2,8 C 99 % 1033,6 hPa 0,0 l/m 0 min 0 min 0,0 UV-I 0 W/m 7,7 km/h (2 Bft)
11.12.2013 06:36 3,7 C 2,8 C 99 % 1033,7 hPa 0,0 l/m 0 min 0 min 0,0 UV-I 0 W/m 10,3 km/h (2 Bft)
11.12.2013 06:38 3,7 C 2,8 C 99 % 1033,6 hPa 0,0 l/m 0 min 0 min 0,0 UV-I 0 W/m 15,4 km/h (3 Bft)
11.12.2013 06:40 3,8 C 2,8 C 99 % 1033,6 hPa 0,0 l/m 0 min 0 min 0,0 UV-I 0 W/m 12,9 km/h (3 Bft)
11.12.2013 06:42 3,8 C 2,8 C 99 % 1033,6 hPa 0,0 l/m 0 min 0 min 0,0 UV-I 0 W/m 20,6 km/h (4 Bft)
11.12.2013 06:44 3,8 C 2,8 C 99 % 1033,6 hPa 0,0 l/m 0 min 0 min 0,0 UV-I 0 W/m 15,4 km/h (3 Bft)
11.12.2013 06:46 3,8 C 2,8 C 99 % 1033,6 hPa 0,0 l/m 0 min 0 min 0,0 UV-I 0 W/m 15,4 km/h (3 Bft)
11.12.2013 06:48 3,8 C 2,8 C 99 % 1033,4 hPa 0,0 l/m 0 min 0 min 0,0 UV-I 0 W/m 18,0 km/h (3 Bft)
11.12.2013 06:50 3,8 C 2,8 C 99 % 1033,4 hPa 0,0 l/m 0 min 0 min 0,0 UV-I 0 W/m 12,9 km/h (3 Bft)
11.12.2013 06:52 3,8 C 2,8 C 99 % 1033,4 hPa 0,0 l/m 0 min 0 min 0,0 UV-I 0 W/m 12,9 km/h (3 Bft)
11.12.2013 06:54 3,8 C 2,8 C 99 % 1033,4 hPa 0,0 l/m 0 min 0 min 0,0 UV-I 0 W/m 15,4 km/h (3 Bft)
11.12.2013 06:56 3,8 C 2,8 C 99 % 1033,4 hPa 0,0 l/m 0 min 0 min 0,0 UV-I 0 W/m 7,7 km/h (2 Bft)
11.12.2013 06:58 3,8 C 2,8 C 99 % 1033,5 hPa 0,0 l/m 0 min 0 min 0,0 UV-I 0 W/m 5,1 km/h (1 Bft)
11.12.2013 07:00 3,8 C 2,8 C 99 % 1033,4 hPa 0,0 l/m 0 min 0 min 0,0 UV-I 0 W/m 12,9 km/h (3 Bft)
11.12.2013 07:02 3,8 C 2,8 C 99 % 1033,3 hPa 0,0 l/m 0 min 0 min 0,0 UV-I 0 W/m 15,4 km/h (3 Bft)
11.12.2013 07:04 3,8 C 2,8 C 99 % 1033,3 hPa 0,0 l/m 0 min 0 min 0,0 UV-I 0 W/m 7,7 km/h (2 Bft)
11.12.2013 07:06 3,8 C 2,8 C 99 % 1033,4 hPa 0,0 l/m 0 min 0 min 0,0 UV-I 0 W/m 12,9 km/h (3 Bft)
11.12.2013 07:08 3,8 C 2,8 C 99 % 1033,5 hPa 0,0 l/m 0 min 0 min 0,0 UV-I 0 W/m 15,4 km/h (3 Bft)
11.12.2013 07:10 3,8 C 2,8 C 99 % 1033,5 hPa 0,0 l/m 0 min 0 min 0,0 UV-I 0 W/m 18,0 km/h (3 Bft)
11.12.2013 07:12 3,8 C 2,8 C 99 % 1033,6 hPa 0,0 l/m 0 min 0 min 0,0 UV-I 0 W/m 20,6 km/h (4 Bft)
11.12.2013 07:14 3,8 C 2,8 C 99 % 1033,5 hPa 0,0 l/m 0 min 0 min 0,0 UV-I 0 W/m 18,0 km/h (3 Bft)
11.12.2013 07:16 3,8 C 2,8 C 99 % 1033,5 hPa 0,0 l/m 0 min 0 min 0,0 UV-I 0 W/m 12,9 km/h (3 Bft)
11.12.2013 07:18 3,8 C 2,8 C 99 % 1033,5 hPa 0,0 l/m 0 min 0 min 0,0 UV-I 0 W/m 10,3 km/h (2 Bft)
11.12.2013 07:20 3,8 C 2,8 C 99 % 1033,4 hPa 0,0 l/m 0 min 0 min 0,0 UV-I 0 W/m 12,9 km/h (3 Bft)
11.12.2013 07:22 3,9 C 2,8 C 99 % 1033,5 hPa 0,0 l/m 0 min 0 min 0,0 UV-I 0 W/m 12,9 km/h (3 Bft)
11.12.2013 07:24 3,9 C 2,8 C 99 % 1033,5 hPa 0,0 l/m 0 min 0 min 0,0 UV-I 0 W/m 7,7 km/h (2 Bft)
11.12.2013 07:26 3,9 C 2,8 C 99 % 1033,5 hPa 0,0 l/m 0 min 0 min 0,0 UV-I 0 W/m 10,3 km/h (2 Bft)
11.12.2013 07:28 3,9 C 2,8 C 99 % 1033,5 hPa 0,0 l/m 0 min 0 min 0,0 UV-I 0 W/m 7,7 km/h (2 Bft)
11.12.2013 07:30 3,9 C 2,8 C 99 % 1033,5 hPa 0,0 l/m 0 min 0 min 0,0 UV-I 0 W/m 10,3 km/h (2 Bft)
11.12.2013 07:32 3,9 C 2,8 C 99 % 1033,4 hPa 0,0 l/m 0 min 0 min 0,0 UV-I 0 W/m 12,9 km/h (3 Bft)
11.12.2013 07:34 3,9 C 3,3 C 99 % 1033,4 hPa 0,0 l/m 0 min 0 min 0,0 UV-I 0 W/m 5,1 km/h (1 Bft)
11.12.2013 07:36 3,9 C 3,3 C 99 % 1033,4 hPa 0,0 l/m 0 min 0 min 0,0 UV-I 0 W/m 10,3 km/h (2 Bft)
11.12.2013 07:38 3,9 C 3,3 C 99 % 1033,4 hPa 0,0 l/m 0 min 0 min 0,0 UV-I 0 W/m 15,4 km/h (3 Bft)
11.12.2013 07:40 3,9 C 3,3 C 99 % 1033,5 hPa 0,0 l/m 0 min 0 min 0,0 UV-I 0 W/m 18,0 km/h (3 Bft)
11.12.2013 07:42 3,9 C 2,8 C 99 % 1033,6 hPa 0,0 l/m 0 min 0 min 0,0 UV-I 0 W/m 18,0 km/h (3 Bft)
11.12.2013 07:44 3,9 C 3,3 C 99 % 1033,6 hPa 0,0 l/m 0 min 0 min 0,0 UV-I 0 W/m 12,9 km/h (3 Bft)
11.12.2013 07:46 3,9 C 3,3 C 99 % 1033,6 hPa 0,0 l/m 0 min 0 min 0,0 UV-I 0 W/m 10,3 km/h (2 Bft)
11.12.2013 07:48 3,9 C 3,3 C 99 % 1033,5 hPa 0,0 l/m 0 min 0 min 0,0 UV-I 0 W/m 2,6 km/h (1 Bft)
11.12.2013 07:50 3,9 C 3,3 C 99 % 1033,5 hPa 0,0 l/m 0 min 0 min 0,0 UV-I 0 W/m 12,9 km/h (3 Bft)
11.12.2013 07:52 3,9 C 3,3 C 99 % 1033,6 hPa 0,0 l/m 0 min 0 min 0,0 UV-I 0 W/m 15,4 km/h (3 Bft)
11.12.2013 07:54 3,9 C 3,3 C 99 % 1033,4 hPa 0,0 l/m 0 min 0 min 0,0 UV-I 0 W/m 10,3 km/h (2 Bft)
11.12.2013 07:56 3,9 C 3,3 C 99 % 1033,5 hPa 0,0 l/m 0 min 0 min 0,0 UV-I 0 W/m 10,3 km/h (2 Bft)
11.12.2013 07:58 3,9 C 3,3 C 99 % 1033,5 hPa 0,0 l/m 0 min 0 min 0,0 UV-I 0 W/m 10,3 km/h (2 Bft)
11.12.2013 08:00 3,9 C 3,3 C 99 % 1033,6 hPa 0,0 l/m 0 min 0 min 0,0 UV-I 0 W/m 5,1 km/h (1 Bft)
11.12.2013 08:02 3,9 C 3,3 C 99 % 1033,6 hPa 0,0 l/m 0 min 0 min 0,0 UV-I 0 W/m 10,3 km/h (2 Bft)
11.12.2013 08:04 3,9 C 3,3 C 99 % 1033,6 hPa 0,0 l/m 0 min 0 min 0,0 UV-I 0 W/m 10,3 km/h (2 Bft)
11.12.2013 08:06 3,9 C 3,3 C 99 % 1033,5 hPa 0,0 l/m 0 min 0 min 0,0 UV-I 0 W/m 7,7 km/h (2 Bft)
11.12.2013 08:08 3,9 C 3,3 C 99 % 1033,6 hPa 0,0 l/m 0 min 0 min 0,0 UV-I 0 W/m 10,3 km/h (2 Bft)
11.12.2013 08:10 3,9 C 3,3 C 99 % 1033,6 hPa 0,0 l/m 0 min 0 min 0,0 UV-I 0 W/m 12,9 km/h (3 Bft)
11.12.2013 08:12 3,9 C 3,3 C 99 % 1033,7 hPa 0,0 l/m 0 min 0 min 0,0 UV-I 0 W/m 18,0 km/h (3 Bft)
11.12.2013 08:14 3,9 C 3,3 C 99 % 1033,6 hPa 0,0 l/m 0 min 0 min 0,0 UV-I 0 W/m 15,4 km/h (3 Bft)
11.12.2013 08:16 3,9 C 3,3 C 99 % 1033,6 hPa 0,0 l/m 0 min 0 min 0,0 UV-I 0 W/m 10,3 km/h (2 Bft)
11.12.2013 08:18 3,9 C 3,3 C 99 % 1033,7 hPa 0,0 l/m 0 min 0 min 0,0 UV-I 0 W/m 15,4 km/h (3 Bft)
11.12.2013 08:20 3,9 C 3,3 C 99 % 1033,7 hPa 0,0 l/m 0 min 0 min 0,0 UV-I 0 W/m 5,1 km/h (1 Bft)
11.12.2013 08:22 4,0 C 3,3 C 99 % 1033,7 hPa 0,0 l/m 0 min 0 min 0,0 UV-I 0 W/m 12,9 km/h (3 Bft)
11.12.2013 08:24 4,0 C 3,3 C 99 % 1033,7 hPa 0,0 l/m 0 min 0 min 0,0 UV-I 0 W/m 15,4 km/h (3 Bft)
11.12.2013 08:26 4,0 C 3,3 C 99 % 1033,7 hPa 0,0 l/m 0 min 0 min 0,0 UV-I 0 W/m 18,0 km/h (3 Bft)
11.12.2013 08:28 4,0 C 3,3 C 99 % 1033,6 hPa 0,0 l/m 0 min 0 min 0,0 UV-I 0 W/m 12,9 km/h (3 Bft)
11.12.2013 08:30 4,0 C 3,3 C 99 % 1033,7 hPa 0,0 l/m 0 min 0 min 0,0 UV-I 0 W/m 23,2 km/h (4 Bft)
11.12.2013 08:32 4,0 C 3,3 C 99 % 1033,7 hPa 0,0 l/m 0 min 0 min 0,0 UV-I 0 W/m 12,9 km/h (3 Bft)
11.12.2013 08:34 4,0 C 3,3 C 99 % 1033,8 hPa 0,0 l/m 0 min 0 min 0,0 UV-I 0 W/m 20,6 km/h (4 Bft)
11.12.2013 08:36 4,0 C 3,3 C 99 % 1033,9 hPa 0,0 l/m 0 min 0 min 0,0 UV-I 0 W/m 12,9 km/h (3 Bft)
11.12.2013 08:38 4,0 C 3,3 C 99 % 1033,8 hPa 0,0 l/m 0 min 0 min 0,0 UV-I 0 W/m 12,9 km/h (3 Bft)
11.12.2013 08:40 4,0 C 3,3 C 99 % 1033,8 hPa 0,0 l/m 0 min 0 min 0,0 UV-I 0 W/m 7,7 km/h (2 Bft)
11.12.2013 08:42 4,1 C 3,3 C 99 % 1033,8 hPa 0,0 l/m 0 min 0 min 0,0 UV-I 0 W/m 12,9 km/h (3 Bft)
11.12.2013 08:44 4,1 C 3,3 C 99 % 1033,7 hPa 0,0 l/m 0 min 0 min 0,0 UV-I 5 W/m 7,7 km/h (2 Bft)
11.12.2013 08:46 4,1 C 3,3 C 99 % 1033,7 hPa 0,0 l/m 0 min 0 min 0,0 UV-I 5 W/m 5,1 km/h (1 Bft)
11.12.2013 08:48 4,1 C 3,3 C 99 % 1033,7 hPa 0,0 l/m 0 min 0 min 0,0 UV-I 5 W/m 0,0 km/h (0 Bft)
11.12.2013 08:50 4,1 C 3,3 C 99 % 1033,8 hPa 0,0 l/m 0 min 0 min 0,0 UV-I 5 W/m 5,1 km/h (1 Bft)
11.12.2013 08:52 4,1 C 3,3 C 99 % 1033,8 hPa 0,0 l/m 0 min 0 min 0,0 UV-I 5 W/m 7,7 km/h (2 Bft)
11.12.2013 08:54 4,1 C 3,3 C 99 % 1033,8 hPa 0,0 l/m 0 min 0 min 0,0 UV-I 7 W/m 10,3 km/h (2 Bft)
11.12.2013 08:56 4,1 C 3,3 C 99 % 1033,8 hPa 0,0 l/m 0 min 0 min 0,0 UV-I 7 W/m 18,0 km/h (3 Bft)
11.12.2013 08:58 4,1 C 3,3 C 99 % 1033,9 hPa 0,0 l/m 0 min 0 min 0,0 UV-I 7 W/m 7,7 km/h (2 Bft)
11.12.2013 09:00 4,1 C 3,3 C 99 % 1033,9 hPa 0,0 l/m 0 min 0 min 0,0 UV-I 7 W/m 12,9 km/h (3 Bft)
11.12.2013 09:02 4,1 C 3,3 C 99 % 1033,9 hPa 0,0 l/m 0 min 0 min 0,0 UV-I 7 W/m 18,0 km/h (3 Bft)
11.12.2013 09:06 4,1 C 3,3 C 99 % 1034,0 hPa 0,0 l/m 0 min 0 min 0,0 UV-I 9 W/m 15,4 km/h (3 Bft)
11.12.2013 09:08 4,1 C 3,3 C 99 % 1034,0 hPa 0,0 l/m 0 min 0 min 0,0 UV-I 9 W/m 12,9 km/h (3 Bft)
11.12.2013 09:10 4,1 C 3,3 C 99 % 1034,0 hPa 0,0 l/m 0 min 0 min 0,0 UV-I 11 W/m 10,3 km/h (2 Bft)
11.12.2013 09:12 4,1 C 3,3 C 99 % 1033,9 hPa 0,0 l/m 0 min 0 min 0,0 UV-I 11 W/m 15,4 km/h (3 Bft)
11.12.2013 09:14 4,1 C 3,3 C 99 % 1034,0 hPa 0,0 l/m 0 min 0 min 0,0 UV-I 12 W/m 12,9 km/h (3 Bft)
11.12.2013 09:16 4,1 C 3,3 C 99 % 1033,9 hPa 0,0 l/m 0 min 0 min 0,0 UV-I 11 W/m 12,9 km/h (3 Bft)
11.12.2013 09:18 4,1 C 3,3 C 99 % 1033,9 hPa 0,0 l/m 0 min 0 min 0,0 UV-I 12 W/m 10,3 km/h (2 Bft)
11.12.2013 09:20 4,1 C 3,3 C 99 % 1033,9 hPa 0,0 l/m 0 min 0 min 0,0 UV-I 12 W/m 10,3 km/h (2 Bft)
11.12.2013 09:22 4,1 C 3,3 C 99 % 1033,9 hPa 0,0 l/m 0 min 0 min 0,0 UV-I 12 W/m 7,7 km/h (2 Bft)
11.12.2013 09:24 4,1 C 3,3 C 99 % 1033,8 hPa 0,0 l/m 0 min 0 min 0,0 UV-I 14 W/m 10,3 km/h (2 Bft)
11.12.2013 09:26 4,2 C 3,3 C 99 % 1033,8 hPa 0,0 l/m 0 min 0 min 0,0 UV-I 14 W/m 20,6 km/h (4 Bft)
11.12.2013 09:28 4,2 C 3,3 C 99 % 1033,8 hPa 0,0 l/m 0 min 0 min 0,0 UV-I 16 W/m 10,3 km/h (2 Bft)
11.12.2013 09:30 4,2 C 3,3 C 99 % 1033,8 hPa 0,0 l/m 0 min 0 min 0,0 UV-I 16 W/m 12,9 km/h (3 Bft)
11.12.2013 09:32 4,2 C 3,3 C 99 % 1033,9 hPa 0,0 l/m 0 min 0 min 0,0 UV-I 14 W/m 2,6 km/h (1 Bft)
11.12.2013 09:34 4,2 C 3,3 C 99 % 1033,9 hPa 0,0 l/m 0 min 0 min 0,0 UV-I 16 W/m 18,0 km/h (3 Bft)
11.12.2013 09:36 4,2 C 3,3 C 99 % 1033,9 hPa 0,0 l/m 0 min 0 min 0,0 UV-I 16 W/m 5,1 km/h (1 Bft)
11.12.2013 09:38 4,2 C 3,3 C 99 % 1033,9 hPa 0,0 l/m 0 min 0 min 0,0 UV-I 16 W/m 7,7 km/h (2 Bft)
11.12.2013 09:40 4,2 C 3,3 C 99 % 1033,9 hPa 0,0 l/m 0 min 0 min 0,0 UV-I 18 W/m 18,0 km/h (3 Bft)
11.12.2013 09:42 4,2 C 3,3 C 99 % 1033,9 hPa 0,0 l/m 0 min 0 min 0,0 UV-I 18 W/m 10,3 km/h (2 Bft)
11.12.2013 09:44 4,2 C 3,3 C 99 % 1033,9 hPa 0,0 l/m 0 min 0 min 0,0 UV-I 19 W/m 5,1 km/h (1 Bft)
11.12.2013 09:46 4,2 C 3,9 C 99 % 1033,9 hPa 0,0 l/m 0 min 0 min 0,0 UV-I 21 W/m 2,6 km/h (1 Bft)
11.12.2013 09:48 4,2 C 3,9 C 99 % 1033,9 hPa 0,0 l/m 0 min 0 min 0,0 UV-I 23 W/m 12,9 km/h (3 Bft)
11.12.2013 09:50 4,3 C 3,9 C 99 % 1033,9 hPa 0,0 l/m 0 min 0 min 0,0 UV-I 21 W/m 12,9 km/h (3 Bft)
11.12.2013 09:52 4,3 C 3,9 C 99 % 1033,9 hPa 0,0 l/m 0 min 0 min 0,0 UV-I 21 W/m 10,3 km/h (2 Bft)
11.12.2013 09:54 4,3 C 3,9 C 99 % 1033,9 hPa 0,0 l/m 0 min 0 min 0,0 UV-I 21 W/m 10,3 km/h (2 Bft)
11.12.2013 09:56 4,3 C 3,9 C 99 % 1033,9 hPa 0,0 l/m 0 min 0 min 0,0 UV-I 23 W/m 10,3 km/h (2 Bft)
11.12.2013 09:58 4,3 C 3,9 C 99 % 1033,9 hPa 0,0 l/m 0 min 0 min 0,0 UV-I 23 W/m 7,7 km/h (2 Bft)
11.12.2013 10:00 4,3 C 3,9 C 99 % 1034,0 hPa 0,0 l/m 0 min 0 min 0,0 UV-I 25 W/m 15,4 km/h (3 Bft)
11.12.2013 10:02 4,4 C 3,9 C 99 % 1034,0 hPa 0,0 l/m 0 min 0 min 0,0 UV-I 25 W/m 15,4 km/h (3 Bft)
11.12.2013 10:06 4,4 C 3,9 C 99 % 1034,0 hPa 0,0 l/m 0 min 0 min 0,0 UV-I 25 W/m 15,4 km/h (3 Bft)
11.12.2013 10:08 4,4 C 3,9 C 99 % 1034,1 hPa 0,0 l/m 0 min 0 min 0,0 UV-I 25 W/m 12,9 km/h (3 Bft)
11.12.2013 10:10 4,4 C 3,9 C 99 % 1034,1 hPa 0,0 l/m 0 min 0 min 0,0 UV-I 28 W/m 10,3 km/h (2 Bft)
11.12.2013 10:12 4,4 C 3,9 C 99 % 1034,1 hPa 0,0 l/m 0 min 0 min 0,0 UV-I 28 W/m 20,6 km/h (4 Bft)
11.12.2013 10:14 4,4 C 3,9 C 99 % 1034,0 hPa 0,0 l/m 0 min 0 min 0,0 UV-I 32 W/m 12,9 km/h (3 Bft)
11.12.2013 10:16 4,4 C 3,9 C 99 % 1034,0 hPa 0,0 l/m 0 min 0 min 0,0 UV-I 30 W/m 15,4 km/h (3 Bft)
11.12.2013 10:18 4,4 C 3,9 C 99 % 1034,0 hPa 0,0 l/m 0 min 0 min 0,0 UV-I 32 W/m 12,9 km/h (3 Bft)
11.12.2013 10:20 4,4 C 3,9 C 99 % 1034,0 hPa 0,0 l/m 0 min 0 min 0,0 UV-I 33 W/m 18,0 km/h (3 Bft)
11.12.2013 10:22 4,4 C 3,9 C 99 % 1034,0 hPa 0,0 l/m 0 min 0 min 0,0 UV-I 33 W/m 25,7 km/h (4 Bft)
11.12.2013 10:24 4,4 C 3,9 C 99 % 1034,1 hPa 0,0 l/m 0 min 0 min 0,0 UV-I 33 W/m 20,6 km/h (4 Bft)
11.12.2013 10:26 4,4 C 3,9 C 99 % 1034,1 hPa 0,0 l/m 0 min 0 min 0,0 UV-I 35 W/m 15,4 km/h (3 Bft)
11.12.2013 10:28 4,4 C 3,9 C 99 % 1034,1 hPa 0,0 l/m 0 min 0 min 0,0 UV-I 35 W/m 15,4 km/h (3 Bft)
11.12.2013 10:30 4,4 C 3,9 C 99 % 1034,1 hPa 0,0 l/m 0 min 0 min 0,0 UV-I 35 W/m 18,0 km/h (3 Bft)
11.12.2013 10:32 4,4 C 3,9 C 99 % 1034,1 hPa 0,0 l/m 0 min 0 min 0,0 UV-I 35 W/m 15,4 km/h (3 Bft)
11.12.2013 10:34 4,5 C 3,9 C 99 % 1034,1 hPa 0,0 l/m 0 min 0 min 0,0 UV-I 33 W/m 5,1 km/h (1 Bft)
11.12.2013 10:36 4,5 C 3,9 C 99 % 1034,1 hPa 0,0 l/m 0 min 0 min 0,0 UV-I 33 W/m 7,7 km/h (2 Bft)
11.12.2013 10:38 4,5 C 3,9 C 99 % 1034,1 hPa 0,0 l/m 0 min 0 min 0,0 UV-I 37 W/m 18,0 km/h (3 Bft)
11.12.2013 10:40 4,5 C 3,9 C 99 % 1034,1 hPa 0,0 l/m 0 min 0 min 0,0 UV-I 39 W/m 15,4 km/h (3 Bft)
11.12.2013 10:42 4,5 C 3,9 C 99 % 1034,1 hPa 0,0 l/m 0 min 0 min 0,0 UV-I 39 W/m 23,2 km/h (4 Bft)
11.12.2013 10:44 4,5 C 3,9 C 99 % 1034,1 hPa 0,0 l/m 0 min 0 min 0,0 UV-I 40 W/m 12,9 km/h (3 Bft)
11.12.2013 10:46 4,6 C 3,9 C 99 % 1034,1 hPa 0,0 l/m 0 min 0 min 0,0 UV-I 39 W/m 23,2 km/h (4 Bft)
11.12.2013 10:48 4,5 C 3,9 C 99 % 1034,0 hPa 0,0 l/m 0 min 0 min 0,0 UV-I 40 W/m 18,0 km/h (3 Bft)
11.12.2013 10:50 4,6 C 3,9 C 99 % 1034,0 hPa 0,0 l/m 0 min 0 min 0,0 UV-I 40 W/m 18,0 km/h (3 Bft)
11.12.2013 10:52 4,6 C 3,9 C 99 % 1034,0 hPa 0,0 l/m 0 min 0 min 0,0 UV-I 40 W/m 12,9 km/h (3 Bft)
11.12.2013 10:54 4,6 C 3,9 C 99 % 1033,9 hPa 0,0 l/m 0 min 0 min 0,0 UV-I 39 W/m 12,9 km/h (3 Bft)
11.12.2013 10:56 4,6 C 4,4 C 99 % 1033,9 hPa 0,0 l/m 0 min 0 min 0,0 UV-I 40 W/m 12,9 km/h (3 Bft)
11.12.2013 10:58 4,6 C 4,4 C 99 % 1033,9 hPa 0,0 l/m 0 min 0 min 0,0 UV-I 42 W/m 2,6 km/h (1 Bft)
11.12.2013 11:00 4,6 C 4,4 C 99 % 1033,9 hPa 0,0 l/m 0 min 0 min 0,0 UV-I 37 W/m 15,4 km/h (3 Bft)
11.12.2013 11:02 4,6 C 4,4 C 99 % 1033,9 hPa 0,0 l/m 0 min 0 min 0,0 UV-I 39 W/m 15,4 km/h (3 Bft)
11.12.2013 11:06 4,6 C 4,4 C 99 % 1034,0 hPa 0,0 l/m 0 min 0 min 0,0 UV-I 44 W/m 12,9 km/h (3 Bft)
11.12.2013 11:08 4,7 C 4,4 C 99 % 1033,9 hPa 0,0 l/m 0 min 0 min 0,0 UV-I 47 W/m 15,4 km/h (3 Bft)
11.12.2013 11:10 4,7 C 4,4 C 99 % 1033,9 hPa 0,0 l/m 0 min 0 min 0,0 UV-I 49 W/m 18,0 km/h (3 Bft)
11.12.2013 11:12 4,7 C 4,4 C 99 % 1033,9 hPa 0,0 l/m 0 min 0 min 0,0 UV-I 47 W/m 23,2 km/h (4 Bft)
11.12.2013 11:14 4,6 C 4,4 C 99 % 1034,0 hPa 0,0 l/m 0 min 0 min 0,0 UV-I 46 W/m 12,9 km/h (3 Bft)
11.12.2013 11:16 4,6 C 4,4 C 99 % 1034,0 hPa 0,0 l/m 0 min 0 min 0,0 UV-I 44 W/m 7,7 km/h (2 Bft)
11.12.2013 11:18 4,6 C 4,4 C 99 % 1033,9 hPa 0,0 l/m 0 min 0 min 0,0 UV-I 44 W/m 12,9 km/h (3 Bft)
11.12.2013 11:20 4,6 C 4,4 C 99 % 1034,0 hPa 0,0 l/m 0 min 0 min 0,0 UV-I 49 W/m 15,4 km/h (3 Bft)
11.12.2013 11:22 4,7 C 4,4 C 99 % 1034,0 hPa 0,0 l/m 0 min 0 min 0,0 UV-I 44 W/m 18,0 km/h (3 Bft)
11.12.2013 11:24 4,7 C 4,4 C 99 % 1033,8 hPa 0,0 l/m 0 min 0 min 0,0 UV-I 47 W/m 15,4 km/h (3 Bft)
11.12.2013 11:26 4,7 C 4,4 C 99 % 1033,8 hPa 0,0 l/m 0 min 0 min 0,0 UV-I 46 W/m 12,9 km/h (3 Bft)
11.12.2013 11:28 4,7 C 4,4 C 99 % 1033,8 hPa 0,0 l/m 0 min 0 min 0,0 UV-I 47 W/m 12,9 km/h (3 Bft)
11.12.2013 11:30 4,7 C 4,4 C 99 % 1033,8 hPa 0,0 l/m 0 min 0 min 0,0 UV-I 46 W/m 15,4 km/h (3 Bft)
11.12.2013 11:32 4,7 C 4,4 C 99 % 1033,8 hPa 0,0 l/m 0 min 0 min 0,0 UV-I 47 W/m 15,4 km/h (3 Bft)
11.12.2013 11:34 4,7 C 4,4 C 99 % 1033,8 hPa 0,0 l/m 0 min 0 min 0,0 UV-I 46 W/m 10,3 km/h (2 Bft)
11.12.2013 11:36 4,7 C 4,4 C 99 % 1033,8 hPa 0,0 l/m 0 min 0 min 0,0 UV-I 47 W/m 10,3 km/h (2 Bft)
11.12.2013 11:40 4,8 C 4,4 C 99 % 1033,8 hPa 0,0 l/m 0 min 0 min 0,0 UV-I 47 W/m 12,9 km/h (3 Bft)
11.12.2013 11:45 4,8 C 4,4 C 99 % 1033,8 hPa 0,0 l/m 0 min 0 min 0,0 UV-I 49 W/m 15,4 km/h (3 Bft)
11.12.2013 11:50 4,8 C 4,4 C 99 % 1033,7 hPa 0,0 l/m 0 min 0 min 0,0 UV-I 49 W/m 18,0 km/h (3 Bft)
11.12.2013 11:56 4,8 C 4,4 C 99 % 1033,6 hPa 0,0 l/m 0 min 0 min 0,0 UV-I 54 W/m 10,3 km/h (2 Bft)
11.12.2013 11:58 4,8 C 4,4 C 99 % 1033,6 hPa 0,0 l/m 0 min 0 min 0,0 UV-I 53 W/m 15,4 km/h (3 Bft)
11.12.2013 12:00 4,8 C 4,4 C 99 % 1033,6 hPa 0,0 l/m 0 min 0 min 0,0 UV-I 56 W/m 10,3 km/h (2 Bft)
11.12.2013 12:02 4,8 C 4,4 C 99 % 1033,5 hPa 0,0 l/m 0 min 0 min 0,0 UV-I 58 W/m 15,4 km/h (3 Bft)
11.12.2013 12:06 4,8 C 4,4 C 99 % 1033,5 hPa 0,0 l/m 0 min 0 min 0,0 UV-I 56 W/m 15,4 km/h (3 Bft)
11.12.2013 12:08 4,8 C 4,4 C 99 % 1033,4 hPa 0,0 l/m 0 min 0 min 0,0 UV-I 58 W/m 10,3 km/h (2 Bft)
11.12.2013 12:10 4,8 C 4,4 C 99 % 1033,4 hPa 0,0 l/m 0 min 0 min 0,0 UV-I 58 W/m 10,3 km/h (2 Bft)
11.12.2013 12:12 4,8 C 5,0 C 99 % 1033,4 hPa 0,0 l/m 0 min 0 min 0,0 UV-I 54 W/m 15,4 km/h (3 Bft)
11.12.2013 12:14 4,8 C 5,0 C 99 % 1033,4 hPa 0,0 l/m 0 min 0 min 0,0 UV-I 54 W/m 15,4 km/h (3 Bft)
11.12.2013 12:16 4,8 C 5,0 C 99 % 1033,4 hPa 0,0 l/m 0 min 0 min 0,0 UV-I 58 W/m 12,9 km/h (3 Bft)
11.12.2013 12:18 4,8 C 5,0 C 99 % 1033,4 hPa 0,0 l/m 0 min 0 min 0,0 UV-I 62 W/m 10,3 km/h (2 Bft)
11.12.2013 12:20 4,8 C 5,0 C 99 % 1033,4 hPa 0,0 l/m 0 min 0 min 0,0 UV-I 60 W/m 15,4 km/h (3 Bft)
11.12.2013 12:22 4,8 C 5,0 C 99 % 1033,4 hPa 0,0 l/m 0 min 0 min 0,0 UV-I 56 W/m 18,0 km/h (3 Bft)
11.12.2013 12:24 4,8 C 5,0 C 99 % 1033,3 hPa 0,0 l/m 0 min 0 min 0,0 UV-I 58 W/m 20,6 km/h (4 Bft)
11.12.2013 12:26 4,8 C 5,0 C 99 % 1033,2 hPa 0,0 l/m 0 min 0 min 0,0 UV-I 58 W/m 20,6 km/h (4 Bft)
11.12.2013 12:28 4,8 C 5,0 C 99 % 1033,3 hPa 0,0 l/m 0 min 0 min 0,0 UV-I 60 W/m 15,4 km/h (3 Bft)
11.12.2013 12:30 4,8 C 4,4 C 99 % 1033,2 hPa 0,0 l/m 0 min 0 min 0,0 UV-I 60 W/m 23,2 km/h (4 Bft)
11.12.2013 12:32 4,8 C 4,4 C 99 % 1033,2 hPa 0,0 l/m 0 min 0 min 0,0 UV-I 56 W/m 18,0 km/h (3 Bft)
11.12.2013 12:34 4,8 C 4,4 C 99 % 1033,2 hPa 0,0 l/m 0 min 0 min 0,0 UV-I 56 W/m 23,2 km/h (4 Bft)
11.12.2013 12:36 4,8 C 4,4 C 99 % 1033,2 hPa 0,0 l/m 0 min 0 min 0,0 UV-I 56 W/m 20,6 km/h (4 Bft)
11.12.2013 12:38 4,8 C 4,4 C 99 % 1033,1 hPa 0,0 l/m 0 min 0 min 0,0 UV-I 56 W/m 15,4 km/h (3 Bft)
11.12.2013 12:40 4,8 C 4,4 C 99 % 1033,1 hPa 0,0 l/m 0 min 0 min 0,0 UV-I 58 W/m 23,2 km/h (4 Bft)
11.12.2013 12:42 4,8 C 5,0 C 99 % 1033,1 hPa 0,0 l/m 0 min 0 min 0,0 UV-I 54 W/m 10,3 km/h (2 Bft)
11.12.2013 12:44 4,8 C 5,0 C 99 % 1033,0 hPa 0,0 l/m 0 min 0 min 0,0 UV-I 56 W/m 5,1 km/h (1 Bft)
11.12.2013 12:46 4,8 C 5,0 C 99 % 1033,0 hPa 0,0 l/m 0 min 0 min 0,0 UV-I 56 W/m 10,3 km/h (2 Bft)
11.12.2013 12:48 4,8 C 5,0 C 99 % 1032,9 hPa 0,0 l/m 0 min 0 min 0,0 UV-I 56 W/m 12,9 km/h (3 Bft)
11.12.2013 12:50 4,8 C 5,0 C 99 % 1033,0 hPa 0,0 l/m 0 min 0 min 0,0 UV-I 58 W/m 7,7 km/h (2 Bft)
11.12.2013 12:52 4,8 C 5,0 C 99 % 1032,9 hPa 0,0 l/m 0 min 0 min 0,0 UV-I 56 W/m 10,3 km/h (2 Bft)
11.12.2013 12:54 4,8 C 5,0 C 99 % 1033,0 hPa 0,0 l/m 0 min 0 min 0,0 UV-I 54 W/m 15,4 km/h (3 Bft)
11.12.2013 12:56 4,8 C 5,0 C 99 % 1032,9 hPa 0,0 l/m 0 min 0 min 0,0 UV-I 58 W/m 18,0 km/h (3 Bft)
11.12.2013 12:58 4,8 C 5,0 C 99 % 1032,9 hPa 0,0 l/m 0 min 0 min 0,0 UV-I 53 W/m 18,0 km/h (3 Bft)
11.12.2013 13:00 4,8 C 5,0 C 99 % 1032,9 hPa 0,0 l/m 0 min 0 min 0,0 UV-I 51 W/m 10,3 km/h (2 Bft)
11.12.2013 13:02 4,8 C 5,0 C 99 % 1032,9 hPa 0,0 l/m 0 min 0 min 0,0 UV-I 53 W/m 10,3 km/h (2 Bft)
11.12.2013 13:04 4,8 C 5,0 C 99 % 1032,9 hPa 0,0 l/m 0 min 0 min 0,0 UV-I 53 W/m 12,9 km/h (3 Bft)
11.12.2013 13:06 4,8 C 5,0 C 99 % 1032,8 hPa 0,0 l/m 0 min 0 min 0,0 UV-I 54 W/m 10,3 km/h (2 Bft)
11.12.2013 13:08 4,8 C 5,0 C 99 % 1032,8 hPa 0,0 l/m 0 min 0 min 0,0 UV-I 58 W/m 18,0 km/h (3 Bft)
11.12.2013 13:10 4,8 C 5,0 C 99 % 1032,8 hPa 0,0 l/m 0 min 0 min 0,0 UV-I 60 W/m 18,0 km/h (3 Bft)
11.12.2013 13:12 4,8 C 5,0 C 99 % 1032,8 hPa 0,0 l/m 0 min 0 min 0,0 UV-I 60 W/m 18,0 km/h (3 Bft)
11.12.2013 13:14 4,8 C 5,0 C 99 % 1032,9 hPa 0,0 l/m 0 min 0 min 0,0 UV-I 58 W/m 23,2 km/h (4 Bft)
11.12.2013 13:16 4,8 C 5,0 C 99 % 1032,8 hPa 0,0 l/m 0 min 0 min 0,0 UV-I 58 W/m 20,6 km/h (4 Bft)
11.12.2013 13:18 4,8 C 5,0 C 99 % 1032,8 hPa 0,0 l/m 0 min 0 min 0,0 UV-I 58 W/m 20,6 km/h (4 Bft)
11.12.2013 13:20 4,8 C 5,0 C 99 % 1032,7 hPa 0,0 l/m 0 min 0 min 0,0 UV-I 60 W/m 18,0 km/h (3 Bft)
11.12.2013 13:22 4,8 C 5,0 C 99 % 1032,7 hPa 0,0 l/m 0 min 0 min 0,0 UV-I 60 W/m 7,7 km/h (2 Bft)
11.12.2013 13:24 4,8 C 5,0 C 99 % 1032,7 hPa 0,0 l/m 0 min 0 min 0,0 UV-I 60 W/m 28,3 km/h (4 Bft)
11.12.2013 13:26 4,8 C 5,0 C 99 % 1032,7 hPa 0,0 l/m 0 min 0 min 0,0 UV-I 54 W/m 20,6 km/h (4 Bft)
11.12.2013 13:28 4,8 C 5,0 C 99 % 1032,7 hPa 0,0 l/m 0 min 0 min 0,0 UV-I 54 W/m 12,9 km/h (3 Bft)
11.12.2013 13:30 4,8 C 5,0 C 99 % 1032,6 hPa 0,0 l/m 0 min 0 min 0,0 UV-I 51 W/m 12,9 km/h (3 Bft)
11.12.2013 13:32 4,8 C 5,0 C 99 % 1032,6 hPa 0,0 l/m 0 min 0 min 0,0 UV-I 51 W/m 15,4 km/h (3 Bft)
11.12.2013 13:34 4,8 C 5,0 C 99 % 1032,6 hPa 0,0 l/m 0 min 0 min 0,0 UV-I 56 W/m 18,0 km/h (3 Bft)
11.12.2013 13:36 4,8 C 5,0 C 99 % 1032,5 hPa 0,0 l/m 0 min 0 min 0,0 UV-I 54 W/m 12,9 km/h (3 Bft)
11.12.2013 13:38 4,8 C 5,0 C 99 % 1032,5 hPa 0,0 l/m 0 min 0 min 0,0 UV-I 51 W/m 12,9 km/h (3 Bft)
11.12.2013 13:40 4,8 C 5,0 C 99 % 1032,5 hPa 0,0 l/m 0 min 0 min 0,0 UV-I 47 W/m 7,7 km/h (2 Bft)
11.12.2013 13:42 4,8 C 5,0 C 99 % 1032,6 hPa 0,0 l/m 0 min 0 min 0,0 UV-I 49 W/m 15,4 km/h (3 Bft)
11.12.2013 13:44 4,8 C 5,0 C 99 % 1032,5 hPa 0,0 l/m 0 min 0 min 0,0 UV-I 49 W/m 12,9 km/h (3 Bft)
11.12.2013 13:46 4,8 C 5,0 C 99 % 1032,5 hPa 0,0 l/m 0 min 0 min 0,0 UV-I 47 W/m 12,9 km/h (3 Bft)
11.12.2013 13:48 4,8 C 5,0 C 99 % 1032,5 hPa 0,0 l/m 0 min 0 min 0,0 UV-I 47 W/m 12,9 km/h (3 Bft)
11.12.2013 13:50 4,8 C 5,0 C 99 % 1032,5 hPa 0,0 l/m 0 min 0 min 0,0 UV-I 46 W/m 12,9 km/h (3 Bft)
11.12.2013 13:52 4,8 C 5,0 C 99 % 1032,5 hPa 0,0 l/m 0 min 0 min 0,0 UV-I 47 W/m 10,3 km/h (2 Bft)
11.12.2013 13:54 4,8 C 5,0 C 99 % 1032,5 hPa 0,0 l/m 0 min 0 min 0,0 UV-I 47 W/m 15,4 km/h (3 Bft)
11.12.2013 13:56 4,8 C 5,0 C 99 % 1032,5 hPa 0,0 l/m 0 min 0 min 0,0 UV-I 44 W/m 12,9 km/h (3 Bft)
11.12.2013 13:58 4,8 C 5,0 C 99 % 1032,5 hPa 0,0 l/m 0 min 0 min 0,0 UV-I 44 W/m 18,0 km/h (3 Bft)
11.12.2013 14:00 4,8 C 5,0 C 99 % 1032,5 hPa 0,0 l/m 0 min 0 min 0,0 UV-I 44 W/m 12,9 km/h (3 Bft)
11.12.2013 14:02 4,8 C 5,0 C 99 % 1032,4 hPa 0,0 l/m 0 min 0 min 0,0 UV-I 47 W/m 23,2 km/h (4 Bft)
11.12.2013 14:06 4,8 C 5,0 C 99 % 1032,4 hPa 0,0 l/m 0 min 0 min 0,0 UV-I 44 W/m 15,4 km/h (3 Bft)
11.12.2013 14:08 5,3 C 5,0 C 100 % 1032,4 hPa 0,0 l/m 0 min 0 min 0,0 UV-I 44 W/m 5,1 km/h (1 Bft)
11.12.2013 14:10 5,3 C 5,0 C 100 % 1032,4 hPa 0,0 l/m 0 min 0 min 0,0 UV-I 44 W/m 10,3 km/h (2 Bft)
11.12.2013 14:12 5,3 C 5,0 C 99 % 1032,4 hPa 0,0 l/m 0 min 0 min 0,0 UV-I 44 W/m 7,7 km/h (2 Bft)
11.12.2013 14:14 5,3 C 5,0 C 99 % 1032,4 hPa 0,0 l/m 0 min 0 min 0,0 UV-I 42 W/m 10,3 km/h (2 Bft)
11.12.2013 14:16 5,4 C 5,0 C 99 % 1032,4 hPa 0,0 l/m 0 min 0 min 0,0 UV-I 42 W/m 10,3 km/h (2 Bft)
11.12.2013 14:18 5,4 C 5,0 C 99 % 1032,3 hPa 0,0 l/m 0 min 0 min 0,0 UV-I 44 W/m 10,3 km/h (2 Bft)
11.12.2013 14:20 5,4 C 5,0 C 99 % 1032,3 hPa 0,0 l/m 0 min 0 min 0,0 UV-I 47 W/m 15,4 km/h (3 Bft)
11.12.2013 14:22 5,4 C 5,0 C 99 % 1032,3 hPa 0,0 l/m 0 min 0 min 0,0 UV-I 49 W/m 10,3 km/h (2 Bft)
11.12.2013 14:24 5,4 C 5,0 C 99 % 1032,2 hPa 0,0 l/m 0 min 0 min 0,0 UV-I 49 W/m 18,0 km/h (3 Bft)
11.12.2013 14:26 5,4 C 5,0 C 99 % 1032,2 hPa 0,0 l/m 0 min 0 min 0,0 UV-I 47 W/m 18,0 km/h (3 Bft)
11.12.2013 14:28 5,4 C 5,0 C 99 % 1032,2 hPa 0,0 l/m 0 min 0 min 0,0 UV-I 47 W/m 15,4 km/h (3 Bft)
11.12.2013 14:30 5,4 C 5,0 C 99 % 1032,2 hPa 0,0 l/m 0 min 0 min 0,0 UV-I 47 W/m 18,0 km/h (3 Bft)
11.12.2013 14:32 5,4 C 5,0 C 99 % 1032,2 hPa 0,0 l/m 0 min 0 min 0,0 UV-I 42 W/m 12,9 km/h (3 Bft)
11.12.2013 14:34 5,4 C 5,0 C 99 % 1032,2 hPa 0,0 l/m 0 min 0 min 0,0 UV-I 42 W/m 10,3 km/h (2 Bft)
11.12.2013 14:36 5,4 C 5,0 C 99 % 1032,2 hPa 0,0 l/m 0 min 0 min 0,0 UV-I 42 W/m 12,9 km/h (3 Bft)
11.12.2013 14:38 5,4 C 5,0 C 99 % 1032,1 hPa 0,0 l/m 0 min 0 min 0,0 UV-I 46 W/m 10,3 km/h (2 Bft)
11.12.2013 14:40 5,4 C 5,0 C 99 % 1032,2 hPa 0,0 l/m 0 min 0 min 0,0 UV-I 49 W/m 12,9 km/h (3 Bft)
11.12.2013 14:42 5,4 C 5,0 C 99 % 1032,2 hPa 0,0 l/m 0 min 0 min 0,0 UV-I 47 W/m 10,3 km/h (2 Bft)
11.12.2013 14:44 5,4 C 5,0 C 99 % 1032,2 hPa 0,0 l/m 0 min 0 min 0,0 UV-I 42 W/m 12,9 km/h (3 Bft)
11.12.2013 14:46 5,4 C 5,0 C 99 % 1032,1 hPa 0,0 l/m 0 min 0 min 0,0 UV-I 42 W/m 18,0 km/h (3 Bft)
11.12.2013 14:48 5,4 C 5,0 C 99 % 1032,1 hPa 0,0 l/m 0 min 0 min 0,0 UV-I 42 W/m 10,3 km/h (2 Bft)
11.12.2013 14:50 5,5 C 5,0 C 99 % 1032,1 hPa 0,0 l/m 0 min 0 min 0,0 UV-I 42 W/m 12,9 km/h (3 Bft)
11.12.2013 14:52 5,5 C 5,0 C 100 % 1032,1 hPa 0,0 l/m 0 min 0 min 0,0 UV-I 42 W/m 15,4 km/h (3 Bft)
11.12.2013 14:54 5,5 C 5,0 C 99 % 1032,1 hPa 0,0 l/m 0 min 0 min 0,0 UV-I 39 W/m 10,3 km/h (2 Bft)
11.12.2013 14:56 5,6 C 5,0 C 99 % 1032,2 hPa 0,0 l/m 0 min 0 min 0,0 UV-I 37 W/m 5,1 km/h (1 Bft)
11.12.2013 14:58 5,6 C 5,0 C 99 % 1032,2 hPa 0,0 l/m 0 min 0 min 0,0 UV-I 37 W/m 2,6 km/h (1 Bft)
11.12.2013 15:00 5,6 C 5,0 C 99 % 1032,1 hPa 0,0 l/m 0 min 0 min 0,0 UV-I 35 W/m 10,3 km/h (2 Bft)
11.12.2013 15:02 5,6 C 5,0 C 99 % 1032,1 hPa 0,0 l/m 0 min 0 min 0,0 UV-I 32 W/m 15,4 km/h (3 Bft)
11.12.2013 15:06 5,6 C 5,0 C 99 % 1032,1 hPa 0,0 l/m 0 min 0 min 0,0 UV-I 30 W/m 12,9 km/h (3 Bft)
11.12.2013 15:08 5,6 C 5,0 C 99 % 1032,1 hPa 0,0 l/m 0 min 0 min 0,0 UV-I 26 W/m 5,1 km/h (1 Bft)
11.12.2013 15:10 5,6 C 5,0 C 99 % 1032,0 hPa 0,0 l/m 0 min 0 min 0,0 UV-I 25 W/m 10,3 km/h (2 Bft)
11.12.2013 15:12 5,6 C 5,0 C 99 % 1032,1 hPa 0,0 l/m 0 min 0 min 0,0 UV-I 23 W/m 20,6 km/h (4 Bft)
11.12.2013 15:14 5,6 C 5,0 C 99 % 1032,0 hPa 0,0 l/m 0 min 0 min 0,0 UV-I 28 W/m 23,2 km/h (4 Bft)
11.12.2013 15:16 5,6 C 5,0 C 99 % 1032,0 hPa 0,0 l/m 0 min 0 min 0,0 UV-I 30 W/m 10,3 km/h (2 Bft)
11.12.2013 15:18 5,6 C 5,0 C 99 % 1032,1 hPa 0,0 l/m 0 min 0 min 0,0 UV-I 30 W/m 20,6 km/h (4 Bft)
11.12.2013 15:20 5,5 C 5,0 C 99 % 1032,0 hPa 0,0 l/m 0 min 0 min 0,0 UV-I 30 W/m 18,0 km/h (3 Bft)
11.12.2013 15:22 5,5 C 5,0 C 99 % 1032,0 hPa 0,0 l/m 0 min 0 min 0,0 UV-I 32 W/m 10,3 km/h (2 Bft)
11.12.2013 15:24 5,5 C 5,0 C 99 % 1032,0 hPa 0,0 l/m 0 min 0 min 0,0 UV-I 30 W/m 15,4 km/h (3 Bft)
11.12.2013 15:26 5,5 C 5,0 C 99 % 1032,0 hPa 0,0 l/m 0 min 0 min 0,0 UV-I 30 W/m 12,9 km/h (3 Bft)
11.12.2013 15:28 5,5 C 5,0 C 99 % 1032,0 hPa 0,0 l/m 0 min 0 min 0,0 UV-I 26 W/m 12,9 km/h (3 Bft)
11.12.2013 15:30 5,5 C 5,0 C 99 % 1032,0 hPa 0,0 l/m 0 min 0 min 0,0 UV-I 25 W/m 7,7 km/h (2 Bft)
11.12.2013 15:32 5,5 C 5,0 C 99 % 1032,0 hPa 0,0 l/m 0 min 0 min 0,0 UV-I 25 W/m 10,3 km/h (2 Bft)
11.12.2013 15:34 5,5 C 5,0 C 99 % 1032,0 hPa 0,0 l/m 0 min 0 min 0,0 UV-I 25 W/m 10,3 km/h (2 Bft)
11.12.2013 15:36 5,5 C 5,0 C 99 % 1032,0 hPa 0,0 l/m 0 min 0 min 0,0 UV-I 25 W/m 15,4 km/h (3 Bft)
11.12.2013 15:38 5,5 C 5,0 C 99 % 1032,0 hPa 0,0 l/m 0 min 0 min 0,0 UV-I 23 W/m 15,4 km/h (3 Bft)
11.12.2013 15:40 5,5 C 5,0 C 99 % 1032,0 hPa 0,0 l/m 0 min 0 min 0,0 UV-I 21 W/m 18,0 km/h (3 Bft)
11.12.2013 15:42 5,5 C 5,0 C 99 % 1032,0 hPa 0,0 l/m 0 min 0 min 0,0 UV-I 21 W/m 10,3 km/h (2 Bft)
11.12.2013 15:44 5,5 C 5,0 C 99 % 1032,0 hPa 0,0 l/m 0 min 0 min 0,0 UV-I 21 W/m 12,9 km/h (3 Bft)
11.12.2013 15:46 5,5 C 5,0 C 99 % 1032,0 hPa 0,0 l/m 0 min 0 min 0,0 UV-I 18 W/m 15,4 km/h (3 Bft)
11.12.2013 15:48 5,5 C 4,4 C 99 % 1032,0 hPa 0,0 l/m 0 min 0 min 0,0 UV-I 16 W/m 12,9 km/h (3 Bft)
11.12.2013 15:50 5,4 C 4,4 C 99 % 1032,0 hPa 0,0 l/m 0 min 0 min 0,0 UV-I 18 W/m 7,7 km/h (2 Bft)
11.12.2013 15:52 5,4 C 4,4 C 99 % 1032,0 hPa 0,0 l/m 0 min 0 min 0,0 UV-I 14 W/m 12,9 km/h (3 Bft)
11.12.2013 15:54 5,4 C 4,4 C 99 % 1032,0 hPa 0,0 l/m 0 min 0 min 0,0 UV-I 14 W/m 12,9 km/h (3 Bft)
11.12.2013 15:56 5,4 C 4,4 C 99 % 1032,0 hPa 0,0 l/m 0 min 0 min 0,0 UV-I 14 W/m 18,0 km/h (3 Bft)
11.12.2013 15:58 5,4 C 4,4 C 99 % 1032,0 hPa 0,0 l/m 0 min 0 min 0,0 UV-I 12 W/m 18,0 km/h (3 Bft)
11.12.2013 16:00 5,4 C 4,4 C 99 % 1032,0 hPa 0,0 l/m 0 min 0 min 0,0 UV-I 12 W/m 10,3 km/h (2 Bft)
11.12.2013 16:02 5,4 C 4,4 C 99 % 1032,0 hPa 0,0 l/m 0 min 0 min 0,0 UV-I 11 W/m 7,7 km/h (2 Bft)
11.12.2013 16:06 5,4 C 4,4 C 99 % 1032,1 hPa 0,0 l/m 0 min 0 min 0,0 UV-I 9 W/m 12,9 km/h (3 Bft)
11.12.2013 16:08 5,4 C 4,4 C 99 % 1032,1 hPa 0,0 l/m 0 min 0 min 0,0 UV-I 9 W/m 12,9 km/h (3 Bft)
11.12.2013 16:10 5,4 C 4,4 C 99 % 1032,0 hPa 0,0 l/m 0 min 0 min 0,0 UV-I 7 W/m 10,3 km/h (2 Bft)
11.12.2013 16:12 5,4 C 4,4 C 99 % 1032,0 hPa 0,0 l/m 0 min 0 min 0,0 UV-I 7 W/m 7,7 km/h (2 Bft)
11.12.2013 16:14 5,4 C 4,4 C 99 % 1032,0 hPa 0,0 l/m 0 min 0 min 0,0 UV-I 7 W/m 5,1 km/h (1 Bft)
11.12.2013 16:16 5,4 C 4,4 C 99 % 1032,0 hPa 0,0 l/m 0 min 0 min 0,0 UV-I 5 W/m 5,1 km/h (1 Bft)
11.12.2013 16:18 5,4 C 4,4 C 99 % 1032,0 hPa 0,0 l/m 0 min 0 min 0,0 UV-I 5 W/m 5,1 km/h (1 Bft)
11.12.2013 16:20 5,4 C 4,4 C 99 % 1032,1 hPa 0,0 l/m 0 min 0 min 0,0 UV-I 5 W/m 7,7 km/h (2 Bft)
11.12.2013 16:22 5,4 C 4,4 C 99 % 1032,0 hPa 0,0 l/m 0 min 0 min 0,0 UV-I 0 W/m 2,6 km/h (1 Bft)
11.12.2013 16:24 5,4 C 4,4 C 99 % 1032,0 hPa 0,0 l/m 0 min 0 min 0,0 UV-I 0 W/m 10,3 km/h (2 Bft)
11.12.2013 16:26 5,4 C 4,4 C 99 % 1032,0 hPa 0,0 l/m 0 min 0 min 0,0 UV-I 0 W/m 10,3 km/h (2 Bft)
11.12.2013 16:28 5,4 C 4,4 C 99 % 1032,0 hPa 0,0 l/m 0 min 0 min 0,0 UV-I 0 W/m 10,3 km/h (2 Bft)
11.12.2013 16:30 5,4 C 4,4 C 99 % 1032,0 hPa 0,0 l/m 0 min 0 min 0,0 UV-I 0 W/m 7,7 km/h (2 Bft)
11.12.2013 16:32 5,4 C 4,4 C 99 % 1031,9 hPa 0,0 l/m 0 min 0 min 0,0 UV-I 0 W/m 10,3 km/h (2 Bft)
11.12.2013 16:34 5,4 C 4,4 C 99 % 1032,0 hPa 0,0 l/m 0 min 0 min 0,0 UV-I 0 W/m 12,9 km/h (3 Bft)
11.12.2013 16:36 5,4 C 4,4 C 99 % 1032,0 hPa 0,0 l/m 0 min 0 min 0,0 UV-I 0 W/m 18,0 km/h (3 Bft)
11.12.2013 16:38 5,4 C 4,4 C 99 % 1031,9 hPa 0,0 l/m 0 min 0 min 0,0 UV-I 0 W/m 15,4 km/h (3 Bft)
11.12.2013 16:40 5,4 C 4,4 C 99 % 1031,9 hPa 0,0 l/m 0 min 0 min 0,0 UV-I 0 W/m 10,3 km/h (2 Bft)
11.12.2013 16:42 5,4 C 4,4 C 99 % 1032,0 hPa 0,0 l/m 0 min 0 min 0,0 UV-I 0 W/m 10,3 km/h (2 Bft)
11.12.2013 16:44 5,4 C 4,4 C 99 % 1032,0 hPa 0,0 l/m 0 min 0 min 0,0 UV-I 0 W/m 5,1 km/h (1 Bft)
11.12.2013 16:46 5,4 C 4,4 C 99 % 1032,1 hPa 0,0 l/m 0 min 0 min 0,0 UV-I 0 W/m 10,3 km/h (2 Bft)
11.12.2013 16:48 5,4 C 4,4 C 99 % 1032,1 hPa 0,0 l/m 0 min 0 min 0,0 UV-I 0 W/m 12,9 km/h (3 Bft)
11.12.2013 16:50 5,4 C 4,4 C 99 % 1032,0 hPa 0,0 l/m 0 min 0 min 0,0 UV-I 0 W/m 12,9 km/h (3 Bft)
11.12.2013 16:52 5,4 C 4,4 C 99 % 1032,0 hPa 0,0 l/m 0 min 0 min 0,0 UV-I 0 W/m 7,7 km/h (2 Bft)
11.12.2013 16:54 5,4 C 4,4 C 99 % 1032,1 hPa 0,0 l/m 0 min 0 min 0,0 UV-I 0 W/m 2,6 km/h (1 Bft)
11.12.2013 16:56 5,4 C 4,4 C 99 % 1032,0 hPa 0,0 l/m 0 min 0 min 0,0 UV-I 0 W/m 15,4 km/h (3 Bft)
11.12.2013 16:58 5,4 C 4,4 C 99 % 1032,1 hPa 0,0 l/m 0 min 0 min 0,0 UV-I 0 W/m 0,0 km/h (0 Bft)
11.12.2013 17:00 5,4 C 4,4 C 99 % 1032,1 hPa 0,0 l/m 0 min 0 min 0,0 UV-I 0 W/m 15,4 km/h (3 Bft)
11.12.2013 17:02 5,4 C 4,4 C 99 % 1032,1 hPa 0,0 l/m 0 min 0 min 0,0 UV-I 0 W/m 15,4 km/h (3 Bft)
11.12.2013 17:06 5,4 C 4,4 C 99 % 1032,1 hPa 0,0 l/m 0 min 0 min 0,0 UV-I 0 W/m 23,2 km/h (4 Bft)
11.12.2013 17:08 5,4 C 4,4 C 99 % 1032,1 hPa 0,0 l/m 0 min 0 min 0,0 UV-I 0 W/m 12,9 km/h (3 Bft)
11.12.2013 17:10 5,4 C 4,4 C 99 % 1032,1 hPa 0,0 l/m 0 min 0 min 0,0 UV-I 0 W/m 12,9 km/h (3 Bft)
11.12.2013 17:12 5,4 C 4,4 C 99 % 1032,2 hPa 0,0 l/m 0 min 0 min 0,0 UV-I 0 W/m 7,7 km/h (2 Bft)
11.12.2013 17:14 5,4 C 4,4 C 99 % 1032,2 hPa 0,0 l/m 0 min 0 min 0,0 UV-I 0 W/m 5,1 km/h (1 Bft)
11.12.2013 17:16 5,4 C 4,4 C 99 % 1032,1 hPa 0,0 l/m 0 min 0 min 0,0 UV-I 0 W/m 0,0 km/h (0 Bft)
11.12.2013 17:18 5,4 C 4,4 C 99 % 1032,1 hPa 0,0 l/m 0 min 0 min 0,0 UV-I 0 W/m 10,3 km/h (2 Bft)
11.12.2013 17:20 5,4 C 4,4 C 99 % 1032,1 hPa 0,0 l/m 0 min 0 min 0,0 UV-I 0 W/m 15,4 km/h (3 Bft)
11.12.2013 17:22 5,4 C 4,4 C 99 % 1032,1 hPa 0,0 l/m 0 min 0 min 0,0 UV-I 0 W/m 12,9 km/h (3 Bft)
11.12.2013 17:24 5,4 C 4,4 C 99 % 1032,0 hPa 0,0 l/m 0 min 0 min 0,0 UV-I 0 W/m 7,7 km/h (2 Bft)
11.12.2013 17:26 5,4 C 4,4 C 99 % 1032,0 hPa 0,0 l/m 0 min 0 min 0,0 UV-I 0 W/m 15,4 km/h (3 Bft)
11.12.2013 17:28 5,4 C 4,4 C 99 % 1032,1 hPa 0,0 l/m 0 min 0 min 0,0 UV-I 0 W/m 18,0 km/h (3 Bft)
11.12.2013 17:30 5,4 C 4,4 C 99 % 1032,1 hPa 0,0 l/m 0 min 0 min 0,0 UV-I 0 W/m 15,4 km/h (3 Bft)
11.12.2013 17:32 5,4 C 4,4 C 99 % 1032,2 hPa 0,0 l/m 0 min 0 min 0,0 UV-I 0 W/m 18,0 km/h (3 Bft)
11.12.2013 17:34 5,4 C 4,4 C 99 % 1032,1 hPa 0,0 l/m 0 min 0 min 0,0 UV-I 0 W/m 12,9 km/h (3 Bft)
11.12.2013 17:36 5,4 C 4,4 C 99 % 1032,1 hPa 0,0 l/m 0 min 0 min 0,0 UV-I 0 W/m 12,9 km/h (3 Bft)
11.12.2013 17:38 5,4 C 4,4 C 99 % 1032,1 hPa 0,0 l/m 0 min 0 min 0,0 UV-I 0 W/m 10,3 km/h (2 Bft)
11.12.2013 17:40 5,4 C 4,4 C 99 % 1032,1 hPa 0,0 l/m 0 min 0 min 0,0 UV-I 0 W/m 12,9 km/h (3 Bft)
11.12.2013 17:42 5,4 C 4,4 C 99 % 1032,1 hPa 0,0 l/m 0 min 0 min 0,0 UV-I 0 W/m 15,4 km/h (3 Bft)
11.12.2013 17:44 5,4 C 4,4 C 99 % 1032,0 hPa 0,0 l/m 0 min 0 min 0,0 UV-I 0 W/m 10,3 km/h (2 Bft)
11.12.2013 17:46 5,4 C 4,4 C 99 % 1032,1 hPa 0,0 l/m 0 min 0 min 0,0 UV-I 0 W/m 12,9 km/h (3 Bft)
11.12.2013 17:48 5,4 C 4,4 C 99 % 1032,1 hPa 0,0 l/m 0 min 0 min 0,0 UV-I 0 W/m 15,4 km/h (3 Bft)
11.12.2013 17:50 5,4 C 4,4 C 99 % 1032,1 hPa 0,0 l/m 0 min 0 min 0,0 UV-I 0 W/m 18,0 km/h (3 Bft)
11.12.2013 17:52 5,4 C 4,4 C 99 % 1032,1 hPa 0,0 l/m 0 min 0 min 0,0 UV-I 0 W/m 18,0 km/h (3 Bft)
11.12.2013 17:54 5,4 C 4,4 C 99 % 1032,1 hPa 0,0 l/m 0 min 0 min 0,0 UV-I 0 W/m 15,4 km/h (3 Bft)
11.12.2013 17:56 5,4 C 4,4 C 99 % 1032,1 hPa 0,0 l/m 0 min 0 min 0,0 UV-I 0 W/m 7,7 km/h (2 Bft)
11.12.2013 17:58 5,4 C 4,4 C 99 % 1032,0 hPa 0,0 l/m 0 min 0 min 0,0 UV-I 0 W/m 7,7 km/h (2 Bft)
11.12.2013 18:00 5,4 C 4,4 C 99 % 1032,0 hPa 0,0 l/m 0 min 0 min 0,0 UV-I 0 W/m 12,9 km/h (3 Bft)
11.12.2013 18:02 5,4 C 4,4 C 98 % 1031,9 hPa 0,0 l/m 0 min 0 min 0,0 UV-I 0 W/m 10,3 km/h (2 Bft)
11.12.2013 18:06 5,4 C 4,4 C 99 % 1032,0 hPa 0,0 l/m 0 min 0 min 0,0 UV-I 0 W/m 18,0 km/h (3 Bft)
11.12.2013 18:08 5,4 C 4,4 C 98 % 1032,0 hPa 0,0 l/m 0 min 0 min 0,0 UV-I 0 W/m 15,4 km/h (3 Bft)
11.12.2013 18:10 5,4 C 4,4 C 98 % 1032,0 hPa 0,0 l/m 0 min 0 min 0,0 UV-I 0 W/m 18,0 km/h (3 Bft)
11.12.2013 18:12 5,4 C 4,4 C 98 % 1032,0 hPa 0,0 l/m 0 min 0 min 0,0 UV-I 0 W/m 12,9 km/h (3 Bft)
11.12.2013 18:14 5,4 C 4,4 C 98 % 1032,0 hPa 0,0 l/m 0 min 0 min 0,0 UV-I 0 W/m 12,9 km/h (3 Bft)
11.12.2013 18:16 5,4 C 4,4 C 98 % 1032,0 hPa 0,0 l/m 0 min 0 min 0,0 UV-I 0 W/m 7,7 km/h (2 Bft)
11.12.2013 18:18 5,4 C 4,4 C 98 % 1031,9 hPa 0,0 l/m 0 min 0 min 0,0 UV-I 0 W/m 10,3 km/h (2 Bft)
11.12.2013 18:20 5,4 C 4,4 C 98 % 1031,9 hPa 0,0 l/m 0 min 0 min 0,0 UV-I 0 W/m 12,9 km/h (3 Bft)
11.12.2013 18:22 5,4 C 4,4 C 98 % 1031,9 hPa 0,0 l/m 0 min 0 min 0,0 UV-I 0 W/m 15,4 km/h (3 Bft)
11.12.2013 18:24 5,4 C 4,4 C 98 % 1031,9 hPa 0,0 l/m 0 min 0 min 0,0 UV-I 0 W/m 12,9 km/h (3 Bft)
11.12.2013 18:26 5,4 C 4,4 C 98 % 1032,0 hPa 0,0 l/m 0 min 0 min 0,0 UV-I 0 W/m 10,3 km/h (2 Bft)
11.12.2013 18:28 5,4 C 4,4 C 98 % 1032,0 hPa 0,0 l/m 0 min 0 min 0,0 UV-I 0 W/m 15,4 km/h (3 Bft)
11.12.2013 18:30 5,4 C 4,4 C 98 % 1031,9 hPa 0,0 l/m 0 min 0 min 0,0 UV-I 0 W/m 18,0 km/h (3 Bft)
11.12.2013 18:32 5,4 C 4,4 C 98 % 1032,0 hPa 0,0 l/m 0 min 0 min 0,0 UV-I 0 W/m 15,4 km/h (3 Bft)
11.12.2013 18:34 5,4 C 4,4 C 98 % 1032,0 hPa 0,0 l/m 0 min 0 min 0,0 UV-I 0 W/m 18,0 km/h (3 Bft)
11.12.2013 18:36 5,4 C 4,4 C 98 % 1032,0 hPa 0,0 l/m 0 min 0 min 0,0 UV-I 0 W/m 18,0 km/h (3 Bft)
11.12.2013 18:38 5,4 C 4,4 C 98 % 1032,0 hPa 0,0 l/m 0 min 0 min 0,0 UV-I 0 W/m 20,6 km/h (4 Bft)
11.12.2013 18:40 5,4 C 4,4 C 98 % 1032,0 hPa 0,0 l/m 0 min 0 min 0,0 UV-I 0 W/m 18,0 km/h (3 Bft)
11.12.2013 18:42 5,4 C 4,4 C 98 % 1032,0 hPa 0,0 l/m 0 min 0 min 0,0 UV-I 0 W/m 15,4 km/h (3 Bft)
11.12.2013 18:44 5,4 C 4,4 C 98 % 1032,0 hPa 0,0 l/m 0 min 0 min 0,0 UV-I 0 W/m 10,3 km/h (2 Bft)
11.12.2013 18:46 5,4 C 4,4 C 98 % 1032,0 hPa 0,0 l/m 0 min 0 min 0,0 UV-I 0 W/m 15,4 km/h (3 Bft)
11.12.2013 18:48 5,4 C 4,4 C 98 % 1032,0 hPa 0,0 l/m 0 min 0 min 0,0 UV-I 0 W/m 15,4 km/h (3 Bft)
11.12.2013 18:50 5,4 C 4,4 C 98 % 1032,0 hPa 0,0 l/m 0 min 0 min 0,0 UV-I 0 W/m 15,4 km/h (3 Bft)
11.12.2013 18:52 5,4 C 4,4 C 98 % 1032,0 hPa 0,0 l/m 0 min 0 min 0,0 UV-I 0 W/m 15,4 km/h (3 Bft)
11.12.2013 18:54 5,4 C 4,4 C 98 % 1032,0 hPa 0,0 l/m 0 min 0 min 0,0 UV-I 0 W/m 10,3 km/h (2 Bft)
11.12.2013 18:56 5,4 C 4,4 C 98 % 1032,0 hPa 0,0 l/m 0 min 0 min 0,0 UV-I 0 W/m 18,0 km/h (3 Bft)
11.12.2013 18:58 5,4 C 4,4 C 98 % 1032,0 hPa 0,0 l/m 0 min 0 min 0,0 UV-I 0 W/m 15,4 km/h (3 Bft)
11.12.2013 19:00 5,4 C 4,4 C 98 % 1032,0 hPa 0,0 l/m 0 min 0 min 0,0 UV-I 0 W/m 20,6 km/h (4 Bft)
11.12.2013 19:02 5,4 C 4,4 C 98 % 1032,0 hPa 0,0 l/m 0 min 0 min 0,0 UV-I 0 W/m 2,6 km/h (1 Bft)
11.12.2013 19:04 5,4 C 4,4 C 98 % 1032,0 hPa 0,0 l/m 0 min 0 min 0,0 UV-I 0 W/m 10,3 km/h (2 Bft)
11.12.2013 19:06 5,4 C 4,4 C 98 % 1031,9 hPa 0,0 l/m 0 min 0 min 0,0 UV-I 0 W/m 12,9 km/h (3 Bft)
11.12.2013 19:08 5,4 C 4,4 C 98 % 1032,0 hPa 0,0 l/m 0 min 0 min 0,0 UV-I 0 W/m 10,3 km/h (2 Bft)
11.12.2013 19:10 5,4 C 4,4 C 98 % 1032,0 hPa 0,0 l/m 0 min 0 min 0,0 UV-I 0 W/m 20,6 km/h (4 Bft)
11.12.2013 19:12 5,4 C 4,4 C 98 % 1032,1 hPa 0,0 l/m 0 min 0 min 0,0 UV-I 0 W/m 2,6 km/h (1 Bft)
11.12.2013 19:14 5,4 C 4,4 C 98 % 1032,0 hPa 0,0 l/m 0 min 0 min 0,0 UV-I 0 W/m 5,1 km/h (1 Bft)
11.12.2013 19:16 5,3 C 4,4 C 98 % 1032,0 hPa 0,0 l/m 0 min 0 min 0,0 UV-I 0 W/m 5,1 km/h (1 Bft)
11.12.2013 19:18 5,3 C 4,4 C 98 % 1032,0 hPa 0,0 l/m 0 min 0 min 0,0 UV-I 0 W/m 12,9 km/h (3 Bft)
11.12.2013 19:20 5,3 C 4,4 C 98 % 1032,0 hPa 0,0 l/m 0 min 0 min 0,0 UV-I 0 W/m 7,7 km/h (2 Bft)
11.12.2013 19:22 5,3 C 4,4 C 98 % 1031,9 hPa 0,0 l/m 0 min 0 min 0,0 UV-I 0 W/m 2,6 km/h (1 Bft)
11.12.2013 19:24 5,3 C 4,4 C 98 % 1031,9 hPa 0,0 l/m 0 min 0 min 0,0 UV-I 0 W/m 7,7 km/h (2 Bft)
11.12.2013 19:26 5,3 C 4,4 C 98 % 1032,0 hPa 0,0 l/m 0 min 0 min 0,0 UV-I 0 W/m 12,9 km/h (3 Bft)
11.12.2013 19:28 5,3 C 4,4 C 98 % 1031,8 hPa 0,0 l/m 0 min 0 min 0,0 UV-I 0 W/m 18,0 km/h (3 Bft)
11.12.2013 19:30 5,3 C 4,4 C 98 % 1031,8 hPa 0,0 l/m 0 min 0 min 0,0 UV-I 0 W/m 15,4 km/h (3 Bft)
11.12.2013 19:32 5,3 C 4,4 C 98 % 1031,8 hPa 0,0 l/m 0 min 0 min 0,0 UV-I 0 W/m 10,3 km/h (2 Bft)
11.12.2013 19:34 5,3 C 4,4 C 98 % 1031,9 hPa 0,0 l/m 0 min 0 min 0,0 UV-I 0 W/m 2,6 km/h (1 Bft)
11.12.2013 19:36 5,3 C 4,4 C 98 % 1031,9 hPa 0,0 l/m 0 min 0 min 0,0 UV-I 0 W/m 15,4 km/h (3 Bft)
11.12.2013 19:38 5,3 C 4,4 C 98 % 1031,8 hPa 0,0 l/m 0 min 0 min 0,0 UV-I 0 W/m 12,9 km/h (3 Bft)
11.12.2013 19:40 5,3 C 4,4 C 98 % 1031,9 hPa 0,0 l/m 0 min 0 min 0,0 UV-I 0 W/m 5,1 km/h (1 Bft)
11.12.2013 19:42 5,3 C 4,4 C 98 % 1032,0 hPa 0,0 l/m 0 min 0 min 0,0 UV-I 0 W/m 10,3 km/h (2 Bft)
11.12.2013 19:44 5,3 C 4,4 C 98 % 1031,9 hPa 0,0 l/m 0 min 0 min 0,0 UV-I 0 W/m 15,4 km/h (3 Bft)
11.12.2013 19:46 5,3 C 4,4 C 98 % 1032,0 hPa 0,0 l/m 0 min 0 min 0,0 UV-I 0 W/m 10,3 km/h (2 Bft)
11.12.2013 19:50 5,3 C 4,4 C 98 % 1032,0 hPa 0,0 l/m 0 min 0 min 0,0 UV-I 0 W/m 18,0 km/h (3 Bft)
11.12.2013 19:55 5,3 C 4,4 C 98 % 1031,9 hPa 0,0 l/m 0 min 0 min 0,0 UV-I 0 W/m 20,6 km/h (4 Bft)
11.12.2013 19:58 5,3 C 4,4 C 98 % 1032,0 hPa 0,0 l/m 0 min 0 min 0,0 UV-I 0 W/m 20,6 km/h (4 Bft)
11.12.2013 20:00 5,3 C 4,4 C 98 % 1031,9 hPa 0,0 l/m 0 min 0 min 0,0 UV-I 0 W/m 20,6 km/h (4 Bft)
11.12.2013 20:02 5,3 C 4,4 C 98 % 1031,9 hPa 0,0 l/m 0 min 0 min 0,0 UV-I 0 W/m 12,9 km/h (3 Bft)
11.12.2013 20:04 5,3 C 4,4 C 98 % 1031,8 hPa 0,0 l/m 0 min 0 min 0,0 UV-I 0 W/m 0,0 km/h (0 Bft)
11.12.2013 20:06 5,3 C 4,4 C 98 % 1031,9 hPa 0,0 l/m 0 min 0 min 0,0 UV-I 0 W/m 2,6 km/h (1 Bft)
11.12.2013 20:08 5,3 C 4,4 C 98 % 1032,0 hPa 0,0 l/m 0 min 0 min 0,0 UV-I 0 W/m 2,6 km/h (1 Bft)
11.12.2013 20:10 5,3 C 4,4 C 98 % 1031,9 hPa 0,0 l/m 0 min 0 min 0,0 UV-I 0 W/m 7,7 km/h (2 Bft)
11.12.2013 20:12 5,3 C 4,4 C 98 % 1032,0 hPa 0,0 l/m 0 min 0 min 0,0 UV-I 0 W/m 0,0 km/h (0 Bft)
11.12.2013 20:14 5,3 C 4,4 C 98 % 1031,9 hPa 0,0 l/m 0 min 0 min 0,0 UV-I 0 W/m 15,4 km/h (3 Bft)
11.12.2013 20:16 5,3 C 4,4 C 98 % 1031,9 hPa 0,0 l/m 0 min 0 min 0,0 UV-I 0 W/m 12,9 km/h (3 Bft)
11.12.2013 20:18 5,3 C 4,4 C 98 % 1031,9 hPa 0,0 l/m 0 min 0 min 0,0 UV-I 0 W/m 10,3 km/h (2 Bft)
11.12.2013 20:20 5,3 C 4,4 C 98 % 1031,9 hPa 0,0 l/m 0 min 0 min 0,0 UV-I 0 W/m 18,0 km/h (3 Bft)
11.12.2013 20:22 5,3 C 4,4 C 98 % 1031,8 hPa 0,0 l/m 0 min 0 min 0,0 UV-I 0 W/m 18,0 km/h (3 Bft)
11.12.2013 20:24 5,3 C 4,4 C 98 % 1032,0 hPa 0,0 l/m 0 min 0 min 0,0 UV-I 0 W/m 12,9 km/h (3 Bft)
11.12.2013 20:26 5,2 C 4,4 C 98 % 1031,9 hPa 0,0 l/m 0 min 0 min 0,0 UV-I 0 W/m 18,0 km/h (3 Bft)
11.12.2013 20:28 5,2 C 4,4 C 98 % 1032,0 hPa 0,0 l/m 0 min 0 min 0,0 UV-I 0 W/m 12,9 km/h (3 Bft)
11.12.2013 20:30 5,2 C 4,4 C 98 % 1032,0 hPa 0,0 l/m 0 min 0 min 0,0 UV-I 0 W/m 10,3 km/h (2 Bft)
11.12.2013 20:32 5,2 C 4,4 C 98 % 1031,9 hPa 0,0 l/m 0 min 0 min 0,0 UV-I 0 W/m 10,3 km/h (2 Bft)
11.12.2013 20:34 5,2 C 4,4 C 98 % 1031,9 hPa 0,0 l/m 0 min 0 min 0,0 UV-I 0 W/m 18,0 km/h (3 Bft)
11.12.2013 20:36 5,2 C 4,4 C 98 % 1031,8 hPa 0,0 l/m 0 min 0 min 0,0 UV-I 0 W/m 12,9 km/h (3 Bft)
11.12.2013 20:38 5,2 C 4,4 C 98 % 1031,9 hPa 0,0 l/m 0 min 0 min 0,0 UV-I 0 W/m 12,9 km/h (3 Bft)
11.12.2013 20:40 5,2 C 4,4 C 98 % 1031,9 hPa 0,0 l/m 0 min 0 min 0,0 UV-I 0 W/m 12,9 km/h (3 Bft)
11.12.2013 20:42 5,2 C 4,4 C 98 % 1031,9 hPa 0,0 l/m 0 min 0 min 0,0 UV-I 0 W/m 23,2 km/h (4 Bft)
11.12.2013 20:44 5,2 C 4,4 C 98 % 1031,8 hPa 0,0 l/m 0 min 0 min 0,0 UV-I 0 W/m 20,6 km/h (4 Bft)
11.12.2013 20:46 5,2 C 4,4 C 98 % 1031,7 hPa 0,0 l/m 0 min 0 min 0,0 UV-I 0 W/m 15,4 km/h (3 Bft)
11.12.2013 20:48 5,2 C 4,4 C 98 % 1031,8 hPa 0,0 l/m 0 min 0 min 0,0 UV-I 0 W/m 20,6 km/h (4 Bft)
11.12.2013 20:50 5,2 C 4,4 C 98 % 1031,7 hPa 0,0 l/m 0 min 0 min 0,0 UV-I 0 W/m 18,0 km/h (3 Bft)
11.12.2013 20:52 5,2 C 4,4 C 98 % 1031,7 hPa 0,0 l/m 0 min 0 min 0,0 UV-I 0 W/m 20,6 km/h (4 Bft)
11.12.2013 20:54 5,2 C 4,4 C 98 % 1031,8 hPa 0,0 l/m 0 min 0 min 0,0 UV-I 0 W/m 15,4 km/h (3 Bft)
11.12.2013 20:56 5,2 C 4,4 C 98 % 1031,7 hPa 0,0 l/m 0 min 0 min 0,0 UV-I 0 W/m 12,9 km/h (3 Bft)
11.12.2013 20:58 5,1 C 4,4 C 98 % 1031,7 hPa 0,0 l/m 0 min 0 min 0,0 UV-I 0 W/m 15,4 km/h (3 Bft)
11.12.2013 21:00 5,1 C 4,4 C 98 % 1031,7 hPa 0,0 l/m 0 min 0 min 0,0 UV-I 0 W/m 25,7 km/h (4 Bft)
11.12.2013 21:02 5,1 C 4,4 C 98 % 1031,7 hPa 0,0 l/m 0 min 0 min 0,0 UV-I 0 W/m 25,7 km/h (4 Bft)
11.12.2013 21:04 5,1 C 4,4 C 98 % 1031,6 hPa 0,0 l/m 0 min 0 min 0,0 UV-I 0 W/m 18,0 km/h (3 Bft)
11.12.2013 21:06 5,1 C 4,4 C 98 % 1031,7 hPa 0,0 l/m 0 min 0 min 0,0 UV-I 0 W/m 12,9 km/h (3 Bft)
11.12.2013 21:08 5,1 C 4,4 C 98 % 1031,7 hPa 0,0 l/m 0 min 0 min 0,0 UV-I 0 W/m 15,4 km/h (3 Bft)
11.12.2013 21:10 5,1 C 4,4 C 98 % 1031,7 hPa 0,0 l/m 0 min 0 min 0,0 UV-I 0 W/m 15,4 km/h (3 Bft)
11.12.2013 21:12 5,1 C 3,9 C 98 % 1031,7 hPa 0,0 l/m 0 min 0 min 0,0 UV-I 0 W/m 5,1 km/h (1 Bft)
11.12.2013 21:14 5,1 C 3,9 C 98 % 1031,6 hPa 0,0 l/m 0 min 0 min 0,0 UV-I 0 W/m 18,0 km/h (3 Bft)
11.12.2013 21:16 5,1 C 4,4 C 98 % 1031,7 hPa 0,0 l/m 0 min 0 min 0,0 UV-I 0 W/m 18,0 km/h (3 Bft)
11.12.2013 21:18 5,1 C 4,4 C 98 % 1031,7 hPa 0,0 l/m 0 min 0 min 0,0 UV-I 0 W/m 15,4 km/h (3 Bft)
11.12.2013 21:20 5,1 C 4,4 C 98 % 1031,7 hPa 0,0 l/m 0 min 0 min 0,0 UV-I 0 W/m 12,9 km/h (3 Bft)
11.12.2013 21:22 5,1 C 4,4 C 98 % 1031,7 hPa 0,0 l/m 0 min 0 min 0,0 UV-I 0 W/m 12,9 km/h (3 Bft)
11.12.2013 21:24 5,1 C 4,4 C 98 % 1031,8 hPa 0,0 l/m 0 min 0 min 0,0 UV-I 0 W/m 15,4 km/h (3 Bft)
11.12.2013 21:26 5,1 C 3,9 C 98 % 1031,8 hPa 0,0 l/m 0 min 0 min 0,0 UV-I 0 W/m 25,7 km/h (4 Bft)
11.12.2013 21:28 5,1 C 3,9 C 98 % 1031,7 hPa 0,0 l/m 0 min 0 min 0,0 UV-I 0 W/m 12,9 km/h (3 Bft)
11.12.2013 21:30 5,1 C 3,9 C 98 % 1031,8 hPa 0,0 l/m 0 min 0 min 0,0 UV-I 0 W/m 12,9 km/h (3 Bft)
11.12.2013 21:32 5,0 C 4,4 C 98 % 1031,8 hPa 0,0 l/m 0 min 0 min 0,0 UV-I 0 W/m 12,9 km/h (3 Bft)
11.12.2013 21:34 5,0 C 3,9 C 98 % 1031,8 hPa 0,0 l/m 0 min 0 min 0,0 UV-I 0 W/m 12,9 km/h (3 Bft)
11.12.2013 21:36 5,0 C 3,9 C 98 % 1031,7 hPa 0,0 l/m 0 min 0 min 0,0 UV-I 0 W/m 7,7 km/h (2 Bft)
11.12.2013 21:38 5,1 C 3,9 C 98 % 1031,7 hPa 0,0 l/m 0 min 0 min 0,0 UV-I 0 W/m 7,7 km/h (2 Bft)
11.12.2013 21:40 5,0 C 4,4 C 98 % 1031,8 hPa 0,0 l/m 0 min 0 min 0,0 UV-I 0 W/m 7,7 km/h (2 Bft)
11.12.2013 21:42 5,0 C 3,9 C 98 % 1031,9 hPa 0,0 l/m 0 min 0 min 0,0 UV-I 0 W/m 18,0 km/h (3 Bft)
11.12.2013 21:44 5,0 C 3,9 C 98 % 1031,8 hPa 0,0 l/m 0 min 0 min 0,0 UV-I 0 W/m 12,9 km/h (3 Bft)
11.12.2013 21:46 5,0 C 4,4 C 98 % 1031,7 hPa 0,0 l/m 0 min 0 min 0,0 UV-I 0 W/m 15,4 km/h (3 Bft)
11.12.2013 21:48 5,1 C 3,9 C 98 % 1031,8 hPa 0,0 l/m 0 min 0 min 0,0 UV-I 0 W/m 10,3 km/h (2 Bft)
11.12.2013 21:50 5,1 C 3,9 C 98 % 1031,8 hPa 0,0 l/m 0 min 0 min 0,0 UV-I 0 W/m 23,2 km/h (4 Bft)
11.12.2013 21:52 5,0 C 3,9 C 98 % 1031,8 hPa 0,0 l/m 0 min 0 min 0,0 UV-I 0 W/m 12,9 km/h (3 Bft)
11.12.2013 21:54 5,0 C 3,9 C 98 % 1031,7 hPa 0,0 l/m 0 min 0 min 0,0 UV-I 0 W/m 12,9 km/h (3 Bft)
11.12.2013 21:56 5,0 C 3,9 C 98 % 1031,7 hPa 0,0 l/m 0 min 0 min 0,0 UV-I 0 W/m 12,9 km/h (3 Bft)
11.12.2013 21:58 5,0 C 3,9 C 98 % 1031,7 hPa 0,0 l/m 0 min 0 min 0,0 UV-I 0 W/m 23,2 km/h (4 Bft)
11.12.2013 22:00 5,0 C 3,9 C 98 % 1031,7 hPa 0,0 l/m 0 min 0 min 0,0 UV-I 0 W/m 10,3 km/h (2 Bft)
11.12.2013 22:02 4,9 C 3,9 C 98 % 1031,7 hPa 0,0 l/m 0 min 0 min 0,0 UV-I 0 W/m 15,4 km/h (3 Bft)
11.12.2013 22:06 4,9 C 3,9 C 98 % 1031,7 hPa 0,0 l/m 0 min 0 min 0,0 UV-I 0 W/m 15,4 km/h (3 Bft)
11.12.2013 22:08 4,9 C 3,9 C 98 % 1031,7 hPa 0,0 l/m 0 min 0 min 0,0 UV-I 0 W/m 18,0 km/h (3 Bft)
11.12.2013 22:10 4,9 C 3,9 C 98 % 1031,7 hPa 0,0 l/m 0 min 0 min 0,0 UV-I 0 W/m 18,0 km/h (3 Bft)
11.12.2013 22:12 4,9 C 3,9 C 98 % 1031,7 hPa 0,0 l/m 0 min 0 min 0,0 UV-I 0 W/m 20,6 km/h (4 Bft)
11.12.2013 22:14 4,9 C 3,9 C 98 % 1031,8 hPa 0,0 l/m 0 min 0 min 0,0 UV-I 0 W/m 15,4 km/h (3 Bft)
11.12.2013 22:16 4,9 C 3,9 C 98 % 1031,7 hPa 0,0 l/m 0 min 0 min 0,0 UV-I 0 W/m 10,3 km/h (2 Bft)
11.12.2013 22:18 4,9 C 3,9 C 98 % 1031,6 hPa 0,0 l/m 0 min 0 min 0,0 UV-I 0 W/m 12,9 km/h (3 Bft)
11.12.2013 22:20 4,9 C 3,9 C 98 % 1031,7 hPa 0,0 l/m 0 min 0 min 0,0 UV-I 0 W/m 10,3 km/h (2 Bft)
11.12.2013 22:22 4,9 C 3,9 C 98 % 1031,6 hPa 0,0 l/m 0 min 0 min 0,0 UV-I 0 W/m 10,3 km/h (2 Bft)
11.12.2013 22:24 4,9 C 3,9 C 98 % 1031,7 hPa 0,0 l/m 0 min 0 min 0,0 UV-I 0 W/m 0,0 km/h (0 Bft)
11.12.2013 22:26 4,9 C 3,9 C 98 % 1031,7 hPa 0,0 l/m 0 min 0 min 0,0 UV-I 0 W/m 10,3 km/h (2 Bft)
11.12.2013 22:28 4,8 C 3,9 C 98 % 1031,7 hPa 0,0 l/m 0 min 0 min 0,0 UV-I 0 W/m 10,3 km/h (2 Bft)
11.12.2013 22:30 4,9 C 3,9 C 98 % 1031,6 hPa 0,0 l/m 0 min 0 min 0,0 UV-I 0 W/m 12,9 km/h (3 Bft)
11.12.2013 22:32 4,9 C 3,9 C 98 % 1031,6 hPa 0,0 l/m 0 min 0 min 0,0 UV-I 0 W/m 20,6 km/h (4 Bft)
11.12.2013 22:34 4,8 C 3,9 C 98 % 1031,6 hPa 0,0 l/m 0 min 0 min 0,0 UV-I 0 W/m 12,9 km/h (3 Bft)
11.12.2013 22:36 4,8 C 3,9 C 98 % 1031,7 hPa 0,0 l/m 0 min 0 min 0,0 UV-I 0 W/m 12,9 km/h (3 Bft)
11.12.2013 22:38 4,8 C 3,9 C 98 % 1031,6 hPa 0,0 l/m 0 min 0 min 0,0 UV-I 0 W/m 25,7 km/h (4 Bft)
11.12.2013 22:40 4,8 C 3,9 C 98 % 1031,6 hPa 0,0 l/m 0 min 0 min 0,0 UV-I 0 W/m 23,2 km/h (4 Bft)
11.12.2013 22:42 4,8 C 3,9 C 98 % 1031,6 hPa 0,0 l/m 0 min 0 min 0,0 UV-I 0 W/m 10,3 km/h (2 Bft)
11.12.2013 22:44 4,8 C 3,9 C 98 % 1031,6 hPa 0,0 l/m 0 min 0 min 0,0 UV-I 0 W/m 15,4 km/h (3 Bft)
11.12.2013 22:46 4,8 C 3,9 C 98 % 1031,6 hPa 0,0 l/m 0 min 0 min 0,0 UV-I 0 W/m 15,4 km/h (3 Bft)
11.12.2013 22:48 4,8 C 3,9 C 98 % 1031,5 hPa 0,0 l/m 0 min 0 min 0,0 UV-I 0 W/m 10,3 km/h (2 Bft)
11.12.2013 22:50 4,8 C 3,9 C 98 % 1031,5 hPa 0,0 l/m 0 min 0 min 0,0 UV-I 0 W/m 15,4 km/h (3 Bft)
11.12.2013 22:52 4,7 C 3,9 C 98 % 1031,5 hPa 0,0 l/m 0 min 0 min 0,0 UV-I 0 W/m 20,6 km/h (4 Bft)
11.12.2013 22:54 4,7 C 3,9 C 98 % 1031,6 hPa 0,0 l/m 0 min 0 min 0,0 UV-I 0 W/m 12,9 km/h (3 Bft)
11.12.2013 22:56 4,7 C 3,9 C 98 % 1031,5 hPa 0,0 l/m 0 min 0 min 0,0 UV-I 0 W/m 18,0 km/h (3 Bft)
11.12.2013 22:58 4,7 C 3,9 C 98 % 1031,5 hPa 0,0 l/m 0 min 0 min 0,0 UV-I 0 W/m 18,0 km/h (3 Bft)
11.12.2013 23:00 4,7 C 3,9 C 98 % 1031,5 hPa 0,0 l/m 0 min 0 min 0,0 UV-I 0 W/m 12,9 km/h (3 Bft)
11.12.2013 23:02 4,7 C 3,9 C 98 % 1031,4 hPa 0,0 l/m 0 min 0 min 0,0 UV-I 0 W/m 12,9 km/h (3 Bft)
11.12.2013 23:04 4,7 C 3,9 C 98 % 1031,4 hPa 0,0 l/m 0 min 0 min 0,0 UV-I 0 W/m 18,0 km/h (3 Bft)
11.12.2013 23:06 4,7 C 3,9 C 98 % 1031,3 hPa 0,0 l/m 0 min 0 min 0,0 UV-I 0 W/m 10,3 km/h (2 Bft)
11.12.2013 23:08 4,7 C 3,9 C 98 % 1031,4 hPa 0,0 l/m 0 min 0 min 0,0 UV-I 0 W/m 20,6 km/h (4 Bft)
11.12.2013 23:10 4,7 C 3,9 C 98 % 1031,4 hPa 0,0 l/m 0 min 0 min 0,0 UV-I 0 W/m 12,9 km/h (3 Bft)
11.12.2013 23:12 4,7 C 3,9 C 98 % 1031,3 hPa 0,0 l/m 0 min 0 min 0,0 UV-I 0 W/m 7,7 km/h (2 Bft)
11.12.2013 23:14 4,7 C 3,9 C 98 % 1031,3 hPa 0,0 l/m 0 min 0 min 0,0 UV-I 0 W/m 10,3 km/h (2 Bft)
11.12.2013 23:16 4,7 C 3,9 C 98 % 1031,4 hPa 0,0 l/m 0 min 0 min 0,0 UV-I 0 W/m 15,4 km/h (3 Bft)
11.12.2013 23:18 4,7 C 3,9 C 98 % 1031,3 hPa 0,0 l/m 0 min 0 min 0,0 UV-I 0 W/m 12,9 km/h (3 Bft)
11.12.2013 23:20 4,7 C 3,9 C 98 % 1031,3 hPa 0,0 l/m 0 min 0 min 0,0 UV-I 0 W/m 15,4 km/h (3 Bft)
11.12.2013 23:22 4,7 C 3,9 C 98 % 1031,3 hPa 0,0 l/m 0 min 0 min 0,0 UV-I 0 W/m 15,4 km/h (3 Bft)
11.12.2013 23:24 4,6 C 3,9 C 98 % 1031,3 hPa 0,0 l/m 0 min 0 min 0,0 UV-I 0 W/m 10,3 km/h (2 Bft)
11.12.2013 23:26 4,6 C 3,9 C 98 % 1031,3 hPa 0,0 l/m 0 min 0 min 0,0 UV-I 0 W/m 7,7 km/h (2 Bft)
11.12.2013 23:28 4,6 C 3,9 C 98 % 1031,3 hPa 0,0 l/m 0 min 0 min 0,0 UV-I 0 W/m 12,9 km/h (3 Bft)
11.12.2013 23:30 4,6 C 3,9 C 98 % 1031,2 hPa 0,0 l/m 0 min 0 min 0,0 UV-I 0 W/m 18,0 km/h (3 Bft)
11.12.2013 23:32 4,6 C 3,9 C 98 % 1031,2 hPa 0,0 l/m 0 min 0 min 0,0 UV-I 0 W/m 10,3 km/h (2 Bft)
11.12.2013 23:34 4,6 C 3,9 C 98 % 1031,2 hPa 0,0 l/m 0 min 0 min 0,0 UV-I 0 W/m 18,0 km/h (3 Bft)
11.12.2013 23:36 4,6 C 3,9 C 98 % 1031,2 hPa 0,0 l/m 0 min 0 min 0,0 UV-I 0 W/m 18,0 km/h (3 Bft)
11.12.2013 23:38 4,6 C 3,9 C 98 % 1031,2 hPa 0,0 l/m 0 min 0 min 0,0 UV-I 0 W/m 18,0 km/h (3 Bft)
11.12.2013 23:40 4,6 C 3,9 C 98 % 1031,2 hPa 0,0 l/m 0 min 0 min 0,0 UV-I 0 W/m 15,4 km/h (3 Bft)
11.12.2013 23:42 4,6 C 3,9 C 98 % 1031,2 hPa 0,0 l/m 0 min 0 min 0,0 UV-I 0 W/m 12,9 km/h (3 Bft)
11.12.2013 23:44 4,6 C 3,9 C 98 % 1031,2 hPa 0,0 l/m 0 min 0 min 0,0 UV-I 0 W/m 12,9 km/h (3 Bft)
11.12.2013 23:46 4,6 C 3,9 C 98 % 1031,3 hPa 0,0 l/m 0 min 0 min 0,0 UV-I 0 W/m 10,3 km/h (2 Bft)
11.12.2013 23:48 4,5 C 3,9 C 98 % 1031,2 hPa 0,0 l/m 0 min 0 min 0,0 UV-I 0 W/m 23,2 km/h (4 Bft)
11.12.2013 23:50 4,5 C 3,9 C 98 % 1031,2 hPa 0,0 l/m 0 min 0 min 0,0 UV-I 0 W/m 18,0 km/h (3 Bft)
11.12.2013 23:52 4,5 C 3,9 C 98 % 1031,2 hPa 0,0 l/m 0 min 0 min 0,0 UV-I 0 W/m 15,4 km/h (3 Bft)
11.12.2013 23:54 4,5 C 3,9 C 98 % 1031,2 hPa 0,0 l/m 0 min 0 min 0,0 UV-I 0 W/m 20,6 km/h (4 Bft)
11.12.2013 23:56 4,5 C 3,9 C 98 % 1031,2 hPa 0,0 l/m 0 min 0 min 0,0 UV-I 0 W/m 7,7 km/h (2 Bft)
11.12.2013 23:58 4,5 C 3,9 C 98 % 1031,2 hPa 0,0 l/m 0 min 0 min 0,0 UV-I 0 W/m 18,0 km/h (3 Bft)
_ Min-Zeit 03:20 00:00 00:00 23:30 - - - - - 00:26
Minimum _ 3,1 C 2,2 C 98 % 1031,2 hPa - - - - - 0,0 km/h (0 Bft)
_ Max-Zeit 14:54 12:12 14:08 00:02 00:00 00:00 04:20 00:00 12:18 05:54
Maximum _ 5,6 C 5,0 C 100 % 1034,2 hPa 0,0 l/m 0 min 2 min 0,0 UV-I 62 W/m 28,3 km/h
S (4 Bft)
Durchschnitt _ 4,5 C 3,7 C 99 % 1032,9 hPa #0,0 l/m #0 min. #2 min. 0,0 UV-I 36 W/m 13,0 km/h (3 Bft)
© 2013 W. Hausmann